Time,TemperatureF,DewpointF,PressureIn,WindDirection,WindDirectionDegrees,WindSpeedMPH,WindSpeedGustMPH,Humidity,HourlyPrecipIn,Conditions,Clouds,dailyrainin,SoftwareType,DateUTC
2013-03-02 00:00:00,59.2,46.6,30.00,NNW,345,3.6,7.2,63,0.00,,---,0.00,VWS V14.01,2013-03-02 05:00:00,
2013-03-02 00:05:00,59.2,46.6,30.00,West,269,2.7,2.7,63,0.00,,---,0.00,VWS V14.01,2013-03-02 05:05:00,
2013-03-02 00:10:00,59.2,46.6,30.00,NW,304,3.1,3.6,63,0.00,,---,0.00,VWS V14.01,2013-03-02 05:10:00,
2013-03-02 00:15:00,59.2,46.6,30.00,NW,326,3.6,3.6,63,0.00,,---,0.00,VWS V14.01,2013-03-02 05:15:00,
2013-03-02 00:20:00,59.0,46.4,30.00,NW,326,4.0,4.0,63,0.00,,---,0.00,VWS V14.01,2013-03-02 05:20:00,
2013-03-02 00:21:00,59.0,46.4,30.00,NW,304,7.6,7.6,63,0.00,,---,0.00,VWS V14.01,2013-03-02 05:21:00,
2013-03-02 00:25:00,59.0,46.4,30.00,NW,317,3.6,3.6,63,0.00,,---,0.00,VWS V14.01,2013-03-02 05:25:00,
2013-03-02 00:26:00,59.0,46.0,30.00,NW,320,3.1,4.9,62,0.00,,---,0.00,VWS V14.01,2013-03-02 05:26:00,
2013-03-02 00:30:00,59.0,46.4,30.00,NW,315,3.1,5.4,63,0.00,,---,0.00,VWS V14.01,2013-03-02 05:30:00,
2013-03-02 00:31:00,59.0,46.4,30.00,NW,321,3.6,5.4,63,0.00,,---,0.00,VWS V14.01,2013-03-02 05:31:00,
2013-03-02 00:35:00,59.0,46.4,30.00,NW,306,4.9,4.9,63,0.00,,---,0.00,VWS V14.01,2013-03-02 05:35:00,
2013-03-02 00:36:00,58.8,46.7,30.00,West,278,4.0,4.0,64,0.00,,---,0.00,VWS V14.01,2013-03-02 05:36:00,
2013-03-02 00:40:00,58.8,46.7,30.00,NW,324,4.9,4.9,64,0.00,,---,0.00,VWS V14.01,2013-03-02 05:40:00,
2013-03-02 00:41:00,58.8,46.3,30.00,WNW,302,4.0,4.0,63,0.00,,---,0.00,VWS V14.01,2013-03-02 05:41:00,
2013-03-02 00:45:00,58.8,46.3,30.00,WNW,285,3.1,3.1,63,0.00,,---,0.00,VWS V14.01,2013-03-02 05:45:00,
2013-03-02 00:46:00,58.8,46.3,30.00,WNW,303,2.2,3.1,63,0.00,,---,0.00,VWS V14.01,2013-03-02 05:46:00,
2013-03-02 00:50:00,58.8,46.3,30.00,NW,319,3.1,4.0,63,0.00,,---,0.00,VWS V14.01,2013-03-02 05:50:00,
2013-03-02 00:51:00,58.8,46.3,30.00,West,276,3.6,3.6,63,0.00,,---,0.00,VWS V14.01,2013-03-02 05:51:00,
2013-03-02 00:52:00,58.8,46.3,30.00,West,274,2.7,4.9,63,0.00,,---,0.00,VWS V14.01,2013-03-02 05:52:00,
2013-03-02 00:55:00,58.8,46.3,30.00,North,353,4.9,4.9,63,0.00,,---,0.00,VWS V14.01,2013-03-02 05:55:00,
2013-03-02 00:56:00,58.8,46.3,30.00,NW,321,3.6,4.9,63,0.00,,---,0.00,VWS V14.01,2013-03-02 05:56:00,
2013-03-02 00:57:00,58.8,46.3,30.00,WNW,282,5.4,5.4,63,0.00,,---,0.00,VWS V14.01,2013-03-02 05:57:00,
2013-03-02 01:00:00,58.8,46.3,30.00,WNW,293,4.0,4.0,63,0.00,,---,0.00,VWS V14.01,2013-03-02 06:00:00,
2013-03-02 01:01:00,58.8,46.7,30.00,NW,307,4.5,4.5,64,0.00,,---,0.00,VWS V14.01,2013-03-02 06:01:00,
2013-03-02 01:02:00,58.8,46.3,30.00,NW,320,2.7,4.0,63,0.00,,---,0.00,VWS V14.01,2013-03-02 06:02:00,
2013-03-02 01:05:00,58.8,46.7,30.03,NW,316,3.6,4.0,64,0.00,,---,0.00,VWS V14.01,2013-03-02 06:05:00,
2013-03-02 01:06:00,58.8,46.7,30.03,NNW,341,3.1,6.3,64,0.00,,---,0.00,VWS V14.01,2013-03-02 06:06:00,
2013-03-02 01:07:00,58.8,46.3,30.03,NW,317,4.9,7.6,63,0.00,,---,0.00,VWS V14.01,2013-03-02 06:07:00,
2013-03-02 01:10:00,58.8,46.3,30.03,NW,310,3.6,4.5,63,0.00,,---,0.00,VWS V14.01,2013-03-02 06:10:00,
2013-03-02 01:11:00,58.6,46.1,30.03,NNW,329,4.0,4.0,63,0.00,,---,0.00,VWS V14.01,2013-03-02 06:11:00,
2013-03-02 01:12:00,58.6,46.1,30.03,NNW,343,3.6,4.0,63,0.00,,---,0.00,VWS V14.01,2013-03-02 06:12:00,
2013-03-02 01:15:00,58.6,46.1,30.03,NW,324,3.1,3.1,63,0.00,,---,0.00,VWS V14.01,2013-03-02 06:15:00,
2013-03-02 01:16:00,58.6,46.1,30.03,NNW,329,2.2,4.0,63,0.00,,---,0.00,VWS V14.01,2013-03-02 06:16:00,
2013-03-02 01:17:00,58.6,46.1,30.00,NW,324,3.1,3.1,63,0.00,,---,0.00,VWS V14.01,2013-03-02 06:17:00,
2013-03-02 01:21:00,58.6,46.1,30.00,NW,321,3.6,4.0,63,0.00,,---,0.00,VWS V14.01,2013-03-02 06:21:00,
2013-03-02 01:22:00,58.5,45.9,30.00,NW,309,4.5,4.5,63,0.00,,---,0.00,VWS V14.01,2013-03-02 06:22:00,
2013-03-02 01:26:00,58.6,46.1,30.00,NNW,340,4.9,4.9,63,0.00,,---,0.00,VWS V14.01,2013-03-02 06:26:00,
2013-03-02 01:27:00,58.6,46.1,30.00,NW,319,4.0,4.9,63,0.00,,---,0.00,VWS V14.01,2013-03-02 06:27:00,
2013-03-02 01:31:00,58.5,45.5,30.00,NNW,335,3.1,5.4,62,0.00,,---,0.00,VWS V14.01,2013-03-02 06:31:00,
2013-03-02 01:32:00,58.5,45.9,30.00,NW,306,2.7,2.7,63,0.00,,---,0.00,VWS V14.01,2013-03-02 06:32:00,
2013-03-02 01:36:00,58.5,45.9,30.03,NW,318,3.6,3.6,63,0.00,,---,0.00,VWS V14.01,2013-03-02 06:36:00,
2013-03-02 01:37:00,58.5,45.9,30.03,West,277,4.9,4.9,63,0.00,,---,0.00,VWS V14.01,2013-03-02 06:37:00,
2013-03-02 01:41:00,58.6,45.7,30.03,NW,307,2.7,2.7,62,0.00,,---,0.00,VWS V14.01,2013-03-02 06:41:00,
2013-03-02 01:42:00,58.5,45.5,30.03,WNW,301,3.6,3.6,62,0.00,,---,0.00,VWS V14.01,2013-03-02 06:42:00,
2013-03-02 01:43:00,58.5,45.5,30.03,WNW,302,4.0,4.5,62,0.00,,---,0.00,VWS V14.01,2013-03-02 06:43:00,
2013-03-02 01:46:00,58.5,45.1,30.03,NNW,330,5.8,5.8,61,0.00,,---,0.00,VWS V14.01,2013-03-02 06:46:00,
2013-03-02 01:47:00,58.3,44.5,30.03,NNW,327,6.3,6.3,60,0.00,,---,0.00,VWS V14.01,2013-03-02 06:47:00,
2013-03-02 01:48:00,58.3,44.0,30.00,North,353,5.4,5.4,59,0.00,,---,0.00,VWS V14.01,2013-03-02 06:48:00,
2013-03-02 01:51:00,58.3,43.6,30.00,NNW,329,2.7,3.1,58,0.00,,---,0.00,VWS V14.01,2013-03-02 06:51:00,
2013-03-02 01:52:00,58.3,43.6,30.00,WNW,302,5.8,5.8,58,0.00,,---,0.00,VWS V14.01,2013-03-02 06:52:00,
2013-03-02 01:53:00,58.3,43.1,30.00,NW,326,6.3,7.2,57,0.00,,---,0.00,VWS V14.01,2013-03-02 06:53:00,
2013-03-02 01:56:00,58.3,42.2,30.00,WNW,293,4.0,4.9,55,0.00,,---,0.00,VWS V14.01,2013-03-02 06:56:00,
2013-03-02 01:57:00,58.3,41.7,30.00,North,0,3.1,5.4,54,0.00,,---,0.00,VWS V14.01,2013-03-02 06:57:00,
2013-03-02 01:58:00,58.3,41.7,30.00,NW,316,3.1,3.1,54,0.00,,---,0.00,VWS V14.01,2013-03-02 06:58:00,
2013-03-02 02:01:00,58.1,40.1,30.00,NW,320,8.1,8.1,51,0.00,,---,0.00,VWS V14.01,2013-03-02 07:01:00,
2013-03-02 02:02:00,58.1,39.6,30.00,WNW,295,2.7,5.4,50,0.00,,---,0.00,VWS V14.01,2013-03-02 07:02:00,
2013-03-02 02:03:00,58.1,39.6,30.00,West,278,6.3,6.3,50,0.00,,---,0.00,VWS V14.01,2013-03-02 07:03:00,
2013-03-02 02:06:00,58.1,39.1,30.00,WNW,300,5.4,5.4,49,0.00,,---,0.00,VWS V14.01,2013-03-02 07:06:00,
2013-03-02 02:07:00,58.1,38.5,30.00,NNW,331,8.1,8.1,48,0.00,,---,0.00,VWS V14.01,2013-03-02 07:07:00,
2013-03-02 02:08:00,58.1,38.5,30.00,NW,314,5.4,6.3,48,0.00,,---,0.00,VWS V14.01,2013-03-02 07:08:00,
2013-03-02 02:11:00,58.1,38.0,30.00,NNW,341,5.8,5.8,47,0.00,,---,0.00,VWS V14.01,2013-03-02 07:11:00,
2013-03-02 02:12:00,58.1,38.0,30.00,NNE,14,3.1,5.4,47,0.00,,---,0.00,VWS V14.01,2013-03-02 07:12:00,
2013-03-02 02:13:00,58.1,38.0,30.00,NNW,340,5.8,7.6,47,0.00,,---,0.00,VWS V14.01,2013-03-02 07:13:00,
2013-03-02 02:16:00,57.9,37.8,30.00,NNW,329,5.4,10.5,47,0.00,,---,0.00,VWS V14.01,2013-03-02 07:16:00,
2013-03-02 02:17:00,57.9,37.8,30.00,NW,316,4.9,7.6,47,0.00,,---,0.00,VWS V14.01,2013-03-02 07:17:00,
2013-03-02 02:18:00,57.9,37.8,30.00,WNW,299,6.3,7.6,47,0.00,,---,0.00,VWS V14.01,2013-03-02 07:18:00,
2013-03-02 02:21:00,57.9,37.8,30.00,North,357,5.4,5.8,47,0.00,,---,0.00,VWS V14.01,2013-03-02 07:21:00,
2013-03-02 02:22:00,57.9,37.8,30.00,WNW,298,3.6,4.0,47,0.00,,---,0.00,VWS V14.01,2013-03-02 07:22:00,
2013-03-02 02:23:00,57.9,37.8,30.00,NNW,329,4.0,6.3,47,0.00,,---,0.00,VWS V14.01,2013-03-02 07:23:00,
2013-03-02 02:26:00,57.9,37.8,30.00,NW,307,4.0,8.3,47,0.00,,---,0.00,VWS V14.01,2013-03-02 07:26:00,
2013-03-02 02:27:00,57.9,37.8,30.00,NW,309,5.4,5.4,47,0.00,,---,0.00,VWS V14.01,2013-03-02 07:27:00,
2013-03-02 02:28:00,57.9,37.8,30.00,NNW,327,5.4,6.3,47,0.00,,---,0.00,VWS V14.01,2013-03-02 07:28:00,
2013-03-02 02:32:00,57.7,38.2,30.00,NW,310,2.7,3.6,48,0.00,,---,0.00,VWS V14.01,2013-03-02 07:32:00,
2013-03-02 02:33:00,57.9,38.9,30.00,NW,316,5.4,6.3,49,0.00,,---,0.00,VWS V14.01,2013-03-02 07:33:00,
2013-03-02 02:37:00,57.7,38.7,30.00,WNW,298,3.6,6.3,49,0.00,,---,0.00,VWS V14.01,2013-03-02 07:37:00,
2013-03-02 02:38:00,57.7,38.7,30.00,North,357,3.1,3.6,49,0.00,,---,0.00,VWS V14.01,2013-03-02 07:38:00,
2013-03-02 02:39:00,57.7,38.7,30.00,North,357,3.1,3.6,49,0.00,,---,0.00,VWS V14.01,2013-03-02 07:39:00,
2013-03-02 02:42:00,57.7,39.2,30.00,WNW,296,2.7,2.7,50,0.00,,---,0.00,VWS V14.01,2013-03-02 07:42:00,
2013-03-02 02:43:00,57.7,39.2,30.00,WNW,285,2.7,2.7,50,0.00,,---,0.00,VWS V14.01,2013-03-02 07:43:00,
2013-03-02 02:44:00,57.7,39.2,30.00,NW,305,3.1,3.6,50,0.00,,---,0.00,VWS V14.01,2013-03-02 07:44:00,
2013-03-02 02:47:00,57.7,39.2,30.00,WNW,298,4.0,4.0,50,0.00,,---,0.00,VWS V14.01,2013-03-02 07:47:00,
2013-03-02 02:48:00,57.7,39.2,30.00,NW,311,5.4,6.7,50,0.00,,---,0.00,VWS V14.01,2013-03-02 07:48:00,
2013-03-02 02:49:00,57.7,39.2,30.00,NW,309,3.6,4.0,50,0.00,,---,0.00,VWS V14.01,2013-03-02 07:49:00,
2013-03-02 02:52:00,57.7,39.2,30.00,West,281,2.7,4.0,50,0.00,,---,0.00,VWS V14.01,2013-03-02 07:52:00,
2013-03-02 02:53:00,57.7,39.2,30.00,North,353,4.0,4.0,50,0.00,,---,0.00,VWS V14.01,2013-03-02 07:53:00,
2013-03-02 02:54:00,57.7,39.2,30.00,North,353,3.1,4.9,50,0.00,,---,0.00,VWS V14.01,2013-03-02 07:54:00,
2013-03-02 02:57:00,57.7,39.2,30.00,NNW,330,3.6,5.4,50,0.00,,---,0.00,VWS V14.01,2013-03-02 07:57:00,
2013-03-02 02:58:00,57.7,39.2,30.00,WNW,303,5.8,5.8,50,0.00,,---,0.00,VWS V14.01,2013-03-02 07:58:00,
2013-03-02 02:59:00,57.7,39.2,30.00,WNW,296,3.6,3.6,50,0.00,,---,0.00,VWS V14.01,2013-03-02 07:59:00,
2013-03-02 03:02:00,57.6,39.1,30.00,WNW,303,3.1,5.4,50,0.00,,---,0.00,VWS V14.01,2013-03-02 08:02:00,
2013-03-02 03:03:00,57.6,39.1,30.00,NNW,330,2.7,5.4,50,0.00,,---,0.00,VWS V14.01,2013-03-02 08:03:00,
2013-03-02 03:04:00,57.6,39.1,30.00,NNW,343,5.4,5.4,50,0.00,,---,0.00,VWS V14.01,2013-03-02 08:04:00,
2013-03-02 03:07:00,57.6,38.6,30.00,NW,317,4.0,5.4,49,0.00,,---,0.00,VWS V14.01,2013-03-02 08:07:00,
2013-03-02 03:08:00,57.6,38.6,30.00,WNW,299,3.6,5.4,49,0.00,,---,0.00,VWS V14.01,2013-03-02 08:08:00,
2013-03-02 03:09:00,57.6,38.6,30.00,NNW,332,4.5,4.5,49,0.00,,---,0.00,VWS V14.01,2013-03-02 08:09:00,
2013-03-02 03:13:00,57.6,38.6,30.00,NW,309,2.7,3.6,49,0.00,,---,0.00,VWS V14.01,2013-03-02 08:13:00,
2013-03-02 03:14:00,57.6,38.0,30.00,NW,322,3.6,4.9,48,0.00,,---,0.00,VWS V14.01,2013-03-02 08:14:00,
2013-03-02 03:18:00,57.6,38.0,30.00,NW,304,5.8,5.8,48,0.00,,---,0.00,VWS V14.01,2013-03-02 08:18:00,
2013-03-02 03:19:00,57.6,38.0,30.00,NW,310,3.1,3.1,48,0.00,,---,0.00,VWS V14.01,2013-03-02 08:19:00,
2013-03-02 03:23:00,57.6,37.5,30.00,NW,310,3.1,3.1,47,0.00,,---,0.00,VWS V14.01,2013-03-02 08:23:00,
2013-03-02 03:24:00,57.6,37.5,30.00,NW,310,3.1,3.1,47,0.00,,---,0.00,VWS V14.01,2013-03-02 08:24:00,
2013-03-02 03:25:00,57.6,37.5,30.00,NW,310,3.1,3.1,47,0.00,,---,0.00,VWS V14.01,2013-03-02 08:25:00,
2013-03-02 03:28:00,57.4,37.3,30.00,NW,310,3.1,3.1,47,0.00,,---,0.00,VWS V14.01,2013-03-02 08:28:00,
2013-03-02 03:30:00,57.4,37.3,30.00,NW,310,3.1,3.1,47,0.00,,---,0.00,VWS V14.01,2013-03-02 08:30:00,
2013-03-02 03:33:00,57.4,37.3,30.00,NW,310,3.1,3.1,47,0.00,,---,0.00,VWS V14.01,2013-03-02 08:33:00,
2013-03-02 03:35:00,57.4,37.3,30.00,NW,310,3.1,3.1,47,0.00,,---,0.00,VWS V14.01,2013-03-02 08:35:00,
2013-03-02 03:38:00,57.4,36.8,30.00,NW,310,3.1,3.1,46,0.00,,---,0.00,VWS V14.01,2013-03-02 08:38:00,
2013-03-02 03:39:00,57.4,36.8,30.00,NW,310,3.1,3.1,46,0.00,,---,0.00,VWS V14.01,2013-03-02 08:39:00,
2013-03-02 03:40:00,57.4,36.8,30.00,NW,310,3.1,3.1,46,0.00,,---,0.00,VWS V14.01,2013-03-02 08:40:00,
2013-03-02 03:43:00,57.4,36.8,30.00,NW,310,3.1,3.1,46,0.00,,---,0.00,VWS V14.01,2013-03-02 08:43:00,
2013-03-02 03:44:00,57.4,36.8,30.00,NW,310,3.1,3.1,46,0.00,,---,0.00,VWS V14.01,2013-03-02 08:44:00,
2013-03-02 03:45:00,57.4,36.8,30.00,NW,310,3.1,3.1,46,0.00,,---,0.00,VWS V14.01,2013-03-02 08:45:00,
2013-03-02 03:48:00,57.4,36.8,30.00,NW,310,3.1,3.1,46,0.00,,---,0.00,VWS V14.01,2013-03-02 08:48:00,
2013-03-02 03:50:00,57.4,36.8,30.00,NW,310,3.1,3.1,46,0.00,,---,0.00,VWS V14.01,2013-03-02 08:50:00,
2013-03-02 03:53:00,57.0,37.0,30.00,NW,310,3.1,3.1,47,0.00,,---,0.00,VWS V14.01,2013-03-02 08:53:00,
2013-03-02 03:55:00,57.0,37.0,30.00,NW,310,3.1,3.1,47,0.00,,---,0.00,VWS V14.01,2013-03-02 08:55:00,
2013-03-02 03:59:00,57.0,37.0,30.00,NW,310,3.1,3.1,47,0.00,,---,0.00,VWS V14.01,2013-03-02 08:59:00,
2013-03-02 04:00:00,57.0,37.0,30.00,NW,310,3.1,3.1,47,0.00,,---,0.00,VWS V14.01,2013-03-02 09:00:00,
2013-03-02 04:04:00,57.0,37.5,30.00,NW,310,3.1,3.1,48,0.00,,---,0.00,VWS V14.01,2013-03-02 09:04:00,
2013-03-02 04:05:00,57.0,37.5,30.00,NW,310,3.1,3.1,48,0.00,,---,0.00,VWS V14.01,2013-03-02 09:05:00,
2013-03-02 04:09:00,57.0,37.5,30.00,NW,310,3.1,3.1,48,0.00,,---,0.00,VWS V14.01,2013-03-02 09:09:00,
2013-03-02 04:10:00,57.0,37.5,30.00,NW,310,3.1,3.1,48,0.00,,---,0.00,VWS V14.01,2013-03-02 09:10:00,
2013-03-02 04:14:00,57.0,38.1,30.00,NW,310,3.1,3.1,49,0.00,,---,0.00,VWS V14.01,2013-03-02 09:14:00,
2013-03-02 04:15:00,57.0,38.1,30.00,NW,310,3.1,3.1,49,0.00,,---,0.00,VWS V14.01,2013-03-02 09:15:00,
2013-03-02 04:19:00,56.8,37.9,30.00,NW,310,3.1,3.1,49,0.00,,---,0.00,VWS V14.01,2013-03-02 09:19:00,
2013-03-02 04:20:00,56.8,37.9,30.00,NW,310,3.1,3.1,49,0.00,,---,0.00,VWS V14.01,2013-03-02 09:20:00,
2013-03-02 04:24:00,56.8,37.9,30.00,NW,310,3.1,3.1,49,0.00,,---,0.00,VWS V14.01,2013-03-02 09:24:00,
2013-03-02 04:25:00,56.8,37.9,30.00,NW,310,3.1,3.1,49,0.00,,---,0.00,VWS V14.01,2013-03-02 09:25:00,
2013-03-02 04:26:00,56.8,37.9,30.00,NW,310,3.1,3.1,49,0.00,,---,0.00,VWS V14.01,2013-03-02 09:26:00,
2013-03-02 04:29:00,56.8,38.4,30.00,NW,310,3.1,3.1,50,0.00,,---,0.00,VWS V14.01,2013-03-02 09:29:00,
2013-03-02 04:30:00,56.8,38.4,30.00,NW,310,3.1,3.1,50,0.00,,---,0.00,VWS V14.01,2013-03-02 09:30:00,
2013-03-02 04:31:00,56.8,38.4,30.00,NW,310,3.1,3.1,50,0.00,,---,0.00,VWS V14.01,2013-03-02 09:31:00,
2013-03-02 04:34:00,56.8,38.4,30.00,NW,310,3.1,3.1,50,0.00,,---,0.00,VWS V14.01,2013-03-02 09:34:00,
2013-03-02 04:35:00,56.8,38.4,30.00,NW,310,3.1,3.1,50,0.00,,---,0.00,VWS V14.01,2013-03-02 09:35:00,
2013-03-02 04:36:00,56.8,38.4,30.00,NW,310,3.1,3.1,50,0.00,,---,0.00,VWS V14.01,2013-03-02 09:36:00,
2013-03-02 04:40:00,56.8,38.9,30.00,NW,310,3.1,3.1,51,0.00,,---,0.00,VWS V14.01,2013-03-02 09:40:00,
2013-03-02 04:41:00,56.8,38.9,30.00,NW,310,3.1,3.1,51,0.00,,---,0.00,VWS V14.01,2013-03-02 09:41:00,
2013-03-02 04:45:00,56.8,39.4,30.00,NW,310,3.1,3.1,52,0.00,,---,0.00,VWS V14.01,2013-03-02 09:45:00,
2013-03-02 04:46:00,56.8,39.4,30.00,NW,310,3.1,3.1,52,0.00,,---,0.00,VWS V14.01,2013-03-02 09:46:00,
2013-03-02 04:50:00,56.7,39.2,30.03,NW,310,3.1,3.1,52,0.00,,---,0.00,VWS V14.01,2013-03-02 09:50:00,
2013-03-02 04:51:00,56.7,39.2,30.03,NW,310,3.1,3.1,52,0.00,,---,0.00,VWS V14.01,2013-03-02 09:51:00,
2013-03-02 04:55:00,56.7,39.2,30.03,NW,310,3.1,3.1,52,0.00,,---,0.00,VWS V14.01,2013-03-02 09:55:00,
2013-03-02 04:56:00,56.7,39.2,30.03,NW,310,3.1,3.1,52,0.00,,---,0.00,VWS V14.01,2013-03-02 09:56:00,
2013-03-02 05:00:00,56.7,39.7,30.03,NW,310,3.1,3.1,53,0.00,,---,0.00,VWS V14.01,2013-03-02 10:00:00,
2013-03-02 05:01:00,56.7,39.7,30.03,NW,310,3.1,3.1,53,0.00,,---,0.00,VWS V14.01,2013-03-02 10:01:00,
2013-03-02 05:05:00,56.7,39.7,30.03,NW,310,3.1,3.1,53,0.00,,---,0.00,VWS V14.01,2013-03-02 10:05:00,
2013-03-02 05:06:00,56.7,39.7,30.03,NW,310,3.1,3.1,53,0.00,,---,0.00,VWS V14.01,2013-03-02 10:06:00,
2013-03-02 05:10:00,56.7,39.7,30.00,NW,310,3.1,3.1,53,0.00,,---,0.00,VWS V14.01,2013-03-02 10:10:00,
2013-03-02 05:11:00,56.7,39.7,30.00,NW,310,3.1,3.1,53,0.00,,---,0.00,VWS V14.01,2013-03-02 10:11:00,
2013-03-02 05:12:00,56.7,39.7,30.00,NW,310,3.1,3.1,53,0.00,,---,0.00,VWS V14.01,2013-03-02 10:12:00,
2013-03-02 05:13:00,56.7,39.7,30.00,NW,310,3.1,3.1,53,0.00,,---,0.00,VWS V14.01,2013-03-02 10:13:00,
2013-03-02 05:15:00,56.7,39.7,30.00,NW,310,3.1,3.1,53,0.00,,---,0.00,VWS V14.01,2013-03-02 10:15:00,
2013-03-02 05:16:00,56.5,39.1,30.00,NW,310,3.1,3.1,52,0.00,,---,0.00,VWS V14.01,2013-03-02 10:16:00,
2013-03-02 05:17:00,56.5,39.1,30.00,NW,310,3.1,3.1,52,0.00,,---,0.00,VWS V14.01,2013-03-02 10:17:00,
2013-03-02 05:19:00,56.5,39.1,30.00,NW,310,3.1,3.1,52,0.00,,---,0.00,VWS V14.01,2013-03-02 10:19:00,
2013-03-02 05:20:00,56.5,39.1,30.00,NW,310,3.1,3.1,52,0.00,,---,0.00,VWS V14.01,2013-03-02 10:20:00,
2013-03-02 05:21:00,56.5,39.1,30.00,NW,310,3.1,3.1,52,0.00,,---,0.00,VWS V14.01,2013-03-02 10:21:00,
2013-03-02 05:22:00,56.5,39.1,30.00,NW,310,3.1,3.1,52,0.00,,---,0.00,VWS V14.01,2013-03-02 10:22:00,
2013-03-02 05:24:00,56.5,39.1,30.00,NW,310,3.1,3.1,52,0.00,,---,0.00,VWS V14.01,2013-03-02 10:24:00,
2013-03-02 05:25:00,56.5,39.6,30.00,NW,310,3.1,3.1,53,0.00,,---,0.00,VWS V14.01,2013-03-02 10:25:00,
2013-03-02 05:26:00,56.5,39.6,30.00,NW,310,3.1,3.1,53,0.00,,---,0.00,VWS V14.01,2013-03-02 10:26:00,
2013-03-02 05:27:00,56.5,39.6,30.00,NW,310,3.1,3.1,53,0.00,,---,0.00,VWS V14.01,2013-03-02 10:27:00,
2013-03-02 05:29:00,56.5,39.6,30.00,NW,310,3.1,3.1,53,0.00,,---,0.00,VWS V14.01,2013-03-02 10:29:00,
2013-03-02 05:31:00,56.5,39.6,30.00,NW,310,3.1,3.1,53,0.00,,---,0.00,VWS V14.01,2013-03-02 10:31:00,
2013-03-02 05:32:00,56.5,39.6,30.00,NW,310,3.1,3.1,53,0.00,,---,0.00,VWS V14.01,2013-03-02 10:32:00,
2013-03-02 05:34:00,56.5,40.0,30.00,NW,310,3.1,3.1,54,0.00,,---,0.00,VWS V14.01,2013-03-02 10:34:00,
2013-03-02 05:36:00,56.5,40.0,30.00,NW,310,3.1,3.1,54,0.00,,---,0.00,VWS V14.01,2013-03-02 10:36:00,
2013-03-02 05:37:00,56.5,40.0,30.00,NW,310,3.1,3.1,54,0.00,,---,0.00,VWS V14.01,2013-03-02 10:37:00,
2013-03-02 05:39:00,56.5,40.0,30.03,NW,310,3.1,3.1,54,0.00,,---,0.00,VWS V14.01,2013-03-02 10:39:00,
2013-03-02 05:41:00,56.5,40.0,30.03,NW,310,3.1,3.1,54,0.00,,---,0.00,VWS V14.01,2013-03-02 10:41:00,
2013-03-02 05:42:00,56.3,39.9,30.03,NW,310,3.1,3.1,54,0.00,,---,0.00,VWS V14.01,2013-03-02 10:42:00,
2013-03-02 05:43:00,56.3,39.9,30.03,NW,310,3.1,3.1,54,0.00,,---,0.00,VWS V14.01,2013-03-02 10:43:00,
2013-03-02 05:44:00,56.3,39.9,30.03,NW,310,3.1,3.1,54,0.00,,---,0.00,VWS V14.01,2013-03-02 10:44:00,
2013-03-02 05:46:00,56.3,39.9,30.03,NW,310,3.1,3.1,54,0.00,,---,0.00,VWS V14.01,2013-03-02 10:46:00,
2013-03-02 05:47:00,56.3,39.9,30.03,NW,310,3.1,3.1,54,0.00,,---,0.00,VWS V14.01,2013-03-02 10:47:00,
2013-03-02 05:48:00,56.3,39.9,30.03,NW,310,3.1,3.1,54,0.00,,---,0.00,VWS V14.01,2013-03-02 10:48:00,
2013-03-02 05:49:00,56.3,39.9,30.03,NW,310,3.1,3.1,54,0.00,,---,0.00,VWS V14.01,2013-03-02 10:49:00,
2013-03-02 05:51:00,56.3,39.9,30.03,NW,310,3.1,3.1,54,0.00,,---,0.00,VWS V14.01,2013-03-02 10:51:00,
2013-03-02 05:52:00,56.3,39.4,30.03,NW,310,3.1,3.1,53,0.00,,---,0.00,VWS V14.01,2013-03-02 10:52:00,
2013-03-02 05:54:00,56.3,39.4,30.03,NW,310,3.1,3.1,53,0.00,,---,0.00,VWS V14.01,2013-03-02 10:54:00,
2013-03-02 05:56:00,56.3,39.4,30.03,NW,310,3.1,3.1,53,0.00,,---,0.00,VWS V14.01,2013-03-02 10:56:00,
2013-03-02 05:57:00,56.3,39.4,30.03,NW,310,3.1,3.1,53,0.00,,---,0.00,VWS V14.01,2013-03-02 10:57:00,
2013-03-02 05:59:00,56.3,39.4,30.03,NW,310,3.1,3.1,53,0.00,,---,0.00,VWS V14.01,2013-03-02 10:59:00,
2013-03-02 06:00:00,56.3,39.4,30.03,NW,310,3.1,3.1,53,0.00,,---,0.00,VWS V14.01,2013-03-02 11:00:00,
2013-03-02 06:01:00,56.1,39.2,30.03,NW,310,3.1,3.1,53,0.00,,---,0.00,VWS V14.01,2013-03-02 11:01:00,
2013-03-02 06:02:00,56.1,39.2,30.03,NW,310,3.1,3.1,53,0.00,,---,0.00,VWS V14.01,2013-03-02 11:02:00,
2013-03-02 06:04:00,56.1,39.2,30.03,NW,310,3.1,3.1,53,0.00,,---,0.00,VWS V14.01,2013-03-02 11:04:00,
2013-03-02 06:05:00,56.1,39.2,30.03,NW,310,3.1,3.1,53,0.00,,---,0.00,VWS V14.01,2013-03-02 11:05:00,
2013-03-02 06:06:00,56.1,39.2,30.03,NW,310,3.1,3.1,53,0.00,,---,0.00,VWS V14.01,2013-03-02 11:06:00,
2013-03-02 06:07:00,56.1,39.2,30.03,NW,310,3.1,3.1,53,0.00,,---,0.00,VWS V14.01,2013-03-02 11:07:00,
2013-03-02 06:09:00,56.1,39.2,30.03,NW,310,3.1,3.1,53,0.00,,---,0.00,VWS V14.01,2013-03-02 11:09:00,
2013-03-02 06:10:00,56.1,39.2,30.03,NW,310,3.1,3.1,53,0.00,,---,0.00,VWS V14.01,2013-03-02 11:10:00,
2013-03-02 06:12:00,55.9,39.1,30.03,NW,310,3.1,3.1,53,0.00,,---,0.00,VWS V14.01,2013-03-02 11:12:00,
2013-03-02 06:14:00,55.9,39.1,30.03,NW,310,3.1,3.1,53,0.00,,---,0.00,VWS V14.01,2013-03-02 11:14:00,
2013-03-02 06:15:00,55.9,39.1,30.03,NW,310,3.1,3.1,53,0.00,,---,0.00,VWS V14.01,2013-03-02 11:15:00,
2013-03-02 06:17:00,55.9,39.1,30.03,NW,310,3.1,3.1,53,0.00,,---,0.00,VWS V14.01,2013-03-02 11:17:00,
2013-03-02 06:19:00,55.9,39.1,30.03,NW,310,3.1,3.1,53,0.00,,---,0.00,VWS V14.01,2013-03-02 11:19:00,
2013-03-02 06:20:00,55.9,39.1,30.03,NW,310,3.1,3.1,53,0.00,,---,0.00,VWS V14.01,2013-03-02 11:20:00,
2013-03-02 06:22:00,55.9,39.1,30.03,NW,310,3.1,3.1,53,0.00,,---,0.00,VWS V14.01,2013-03-02 11:22:00,
2013-03-02 06:24:00,55.9,39.1,30.03,NW,310,3.1,3.1,53,0.00,,---,0.00,VWS V14.01,2013-03-02 11:24:00,
2013-03-02 06:25:00,55.9,39.1,30.06,NW,310,3.1,3.1,53,0.00,,---,0.00,VWS V14.01,2013-03-02 11:25:00,
2013-03-02 06:27:00,55.9,39.1,30.06,NW,310,3.1,3.1,53,0.00,,---,0.00,VWS V14.01,2013-03-02 11:27:00,
2013-03-02 06:28:00,55.9,39.1,30.06,NW,310,3.1,3.1,53,0.00,,---,0.00,VWS V14.01,2013-03-02 11:28:00,
2013-03-02 06:29:00,55.9,39.1,30.06,NW,310,3.1,3.1,53,0.00,,---,0.00,VWS V14.01,2013-03-02 11:29:00,
2013-03-02 06:30:00,55.9,39.1,30.06,NW,310,3.1,3.1,53,0.00,,---,0.00,VWS V14.01,2013-03-02 11:30:00,
2013-03-02 06:32:00,55.9,39.1,30.06,NW,310,3.1,3.1,53,0.00,,---,0.00,VWS V14.01,2013-03-02 11:32:00,
2013-03-02 06:33:00,55.9,39.1,30.06,NW,310,3.1,3.1,53,0.00,,---,0.00,VWS V14.01,2013-03-02 11:33:00,
2013-03-02 06:35:00,55.9,39.1,30.06,NW,310,3.1,3.1,53,0.00,,---,0.00,VWS V14.01,2013-03-02 11:35:00,
2013-03-02 06:38:00,55.8,38.9,30.06,NW,310,3.1,3.1,53,0.00,,---,0.00,VWS V14.01,2013-03-02 11:38:00,
2013-03-02 06:40:00,55.8,38.9,30.06,NW,310,3.1,3.1,53,0.00,,---,0.00,VWS V14.01,2013-03-02 11:40:00,
2013-03-02 06:42:00,55.8,38.9,30.06,NW,310,3.1,3.1,53,0.00,,---,0.00,VWS V14.01,2013-03-02 11:42:00,
2013-03-02 06:43:00,55.8,38.9,30.06,NW,310,3.1,3.1,53,0.00,,---,0.00,VWS V14.01,2013-03-02 11:43:00,
2013-03-02 06:45:00,55.8,38.9,30.06,NW,310,3.1,3.1,53,0.00,,---,0.00,VWS V14.01,2013-03-02 11:45:00,
2013-03-02 06:48:00,55.4,38.6,30.06,NW,310,3.1,3.1,53,0.00,,---,0.00,VWS V14.01,2013-03-02 11:48:00,
2013-03-02 06:50:00,55.4,38.6,30.06,NW,310,3.1,3.1,53,0.00,,---,0.00,VWS V14.01,2013-03-02 11:50:00,
2013-03-02 06:51:00,55.4,38.6,30.06,NW,310,3.1,3.1,53,0.00,,---,0.00,VWS V14.01,2013-03-02 11:51:00,
2013-03-02 06:53:00,55.4,38.6,30.06,NW,310,3.1,3.1,53,0.00,,---,0.00,VWS V14.01,2013-03-02 11:53:00,
2013-03-02 06:55:00,55.4,38.6,30.06,NW,310,3.1,3.1,53,0.00,,---,0.00,VWS V14.01,2013-03-02 11:55:00,
2013-03-02 06:56:00,55.4,39.0,30.06,NW,310,3.1,3.1,54,0.00,,---,0.00,VWS V14.01,2013-03-02 11:56:00,
2013-03-02 06:58:00,55.4,39.0,30.06,NW,310,3.1,3.1,54,0.00,,---,0.00,VWS V14.01,2013-03-02 11:58:00,
2013-03-02 07:00:00,55.4,39.0,30.06,NW,310,3.1,3.1,54,0.00,,---,0.00,VWS V14.01,2013-03-02 12:00:00,
2013-03-02 07:01:00,55.4,39.0,30.06,NW,310,3.1,3.1,54,0.00,,---,0.00,VWS V14.01,2013-03-02 12:01:00,
2013-03-02 07:03:00,55.4,39.0,30.06,NW,310,3.1,3.1,54,0.00,,---,0.00,VWS V14.01,2013-03-02 12:03:00,
2013-03-02 07:06:00,55.4,39.0,30.06,NW,310,3.1,3.1,54,0.00,,---,0.00,VWS V14.01,2013-03-02 12:06:00,
2013-03-02 07:08:00,55.4,39.0,30.06,NW,310,3.1,3.1,54,0.00,,---,0.00,VWS V14.01,2013-03-02 12:08:00,
2013-03-02 07:11:00,55.4,39.0,30.06,NW,310,3.1,3.1,54,0.00,,---,0.00,VWS V14.01,2013-03-02 12:11:00,
2013-03-02 07:13:00,55.4,39.0,30.06,NW,310,3.1,3.1,54,0.00,,---,0.00,VWS V14.01,2013-03-02 12:13:00,
2013-03-02 07:16:00,55.2,38.9,30.06,NW,310,3.1,3.1,54,0.00,,---,0.00,VWS V14.01,2013-03-02 12:16:00,
2013-03-02 07:18:00,55.2,38.9,30.06,NW,310,3.1,3.1,54,0.00,,---,0.00,VWS V14.01,2013-03-02 12:18:00,
2013-03-02 07:21:00,55.2,37.9,30.06,NW,310,3.1,3.1,52,0.00,,---,0.00,VWS V14.01,2013-03-02 12:21:00,
2013-03-02 07:23:00,55.2,37.4,30.06,NW,310,3.1,3.1,51,0.00,,---,0.00,VWS V14.01,2013-03-02 12:23:00,
2013-03-02 07:24:00,55.2,37.4,30.06,NW,310,3.1,3.1,51,0.00,,---,0.00,VWS V14.01,2013-03-02 12:24:00,
2013-03-02 07:26:00,55.2,37.4,30.06,NW,310,3.1,3.1,51,0.00,,---,0.00,VWS V14.01,2013-03-02 12:26:00,
2013-03-02 07:28:00,55.2,37.4,30.06,WNW,297,2.7,2.7,51,0.00,,---,0.00,VWS V14.01,2013-03-02 12:28:00,
2013-03-02 07:29:00,55.2,37.4,30.06,WNW,297,2.7,2.7,51,0.00,,---,0.00,VWS V14.01,2013-03-02 12:29:00,
2013-03-02 07:31:00,55.2,37.4,30.06,WNW,297,2.7,2.7,51,0.00,,---,0.00,VWS V14.01,2013-03-02 12:31:00,
2013-03-02 07:33:00,55.0,37.3,30.06,WNW,297,2.7,2.7,51,0.00,,---,0.00,VWS V14.01,2013-03-02 12:33:00,
2013-03-02 07:34:00,55.0,37.3,30.06,WNW,297,2.7,2.7,51,0.00,,---,0.00,VWS V14.01,2013-03-02 12:34:00,
2013-03-02 07:36:00,55.0,37.3,30.06,WNW,297,2.7,2.7,51,0.00,,---,0.00,VWS V14.01,2013-03-02 12:36:00,
2013-03-02 07:38:00,55.0,37.3,30.06,WNW,297,2.7,2.7,51,0.00,,---,0.00,VWS V14.01,2013-03-02 12:38:00,
2013-03-02 07:39:00,55.0,37.3,30.06,WNW,297,2.7,2.7,51,0.00,,---,0.00,VWS V14.01,2013-03-02 12:39:00,
2013-03-02 07:42:00,55.0,37.8,30.06,WNW,297,2.7,2.7,52,0.00,,---,0.00,VWS V14.01,2013-03-02 12:42:00,
2013-03-02 07:44:00,55.0,37.8,30.06,WNW,297,2.7,2.7,52,0.00,,---,0.00,VWS V14.01,2013-03-02 12:44:00,
2013-03-02 07:47:00,54.7,35.9,30.06,WNW,297,2.7,2.7,49,0.00,,---,0.00,VWS V14.01,2013-03-02 12:47:00,
2013-03-02 07:49:00,54.7,35.9,30.09,WNW,297,2.7,2.7,49,0.00,,---,0.00,VWS V14.01,2013-03-02 12:49:00,
2013-03-02 07:52:00,54.9,36.1,30.09,NW,323,8.1,8.1,49,0.00,,---,0.00,VWS V14.01,2013-03-02 12:52:00,
2013-03-02 07:54:00,54.9,36.1,30.09,NW,304,5.4,5.4,49,0.00,,---,0.00,VWS V14.01,2013-03-02 12:54:00,
2013-03-02 07:55:00,54.9,36.1,30.09,NW,304,5.4,5.4,49,0.00,,---,0.00,VWS V14.01,2013-03-02 12:55:00,
2013-03-02 07:57:00,54.9,36.1,30.09,North,0,4.0,4.0,49,0.00,,---,0.00,VWS V14.01,2013-03-02 12:57:00,
2013-03-02 07:59:00,54.9,36.1,30.09,NNW,333,8.3,8.3,49,0.00,,---,0.00,VWS V14.01,2013-03-02 12:59:00,
2013-03-02 08:00:00,54.9,36.1,30.09,NNW,333,8.3,8.3,49,0.00,,---,0.00,VWS V14.01,2013-03-02 13:00:00,
2013-03-02 08:02:00,54.9,36.1,30.09,NNW,341,6.3,6.3,49,0.00,,---,0.00,VWS V14.01,2013-03-02 13:02:00,
2013-03-02 08:04:00,54.9,36.1,30.09,West,281,8.1,8.1,49,0.00,,---,0.00,VWS V14.01,2013-03-02 13:04:00,
2013-03-02 08:06:00,54.9,36.1,30.09,West,281,8.1,8.1,49,0.00,,---,0.00,VWS V14.01,2013-03-02 13:06:00,
2013-03-02 08:07:00,54.9,36.1,30.09,North,353,2.7,2.7,49,0.00,,---,0.00,VWS V14.01,2013-03-02 13:07:00,
2013-03-02 08:10:00,54.7,34.9,30.09,North,353,2.7,2.7,47,0.00,,---,0.00,VWS V14.01,2013-03-02 13:10:00,
2013-03-02 08:11:00,54.7,34.9,30.09,North,353,2.7,2.7,47,0.00,,---,0.00,VWS V14.01,2013-03-02 13:11:00,
2013-03-02 08:12:00,54.7,34.9,30.09,NW,314,4.0,4.0,47,0.00,,---,0.00,VWS V14.01,2013-03-02 13:12:00,
2013-03-02 08:15:00,54.7,34.9,30.09,NW,314,4.0,4.0,47,0.00,,---,0.00,VWS V14.01,2013-03-02 13:15:00,
2013-03-02 08:16:00,54.7,34.9,30.09,NW,314,4.0,4.0,47,0.00,,---,0.00,VWS V14.01,2013-03-02 13:16:00,
2013-03-02 08:17:00,54.9,35.0,30.09,NW,314,4.0,4.0,47,0.00,,---,0.00,VWS V14.01,2013-03-02 13:17:00,
2013-03-02 08:18:00,54.9,34.5,30.09,NW,314,4.0,4.0,46,0.00,,---,0.00,VWS V14.01,2013-03-02 13:18:00,
2013-03-02 08:20:00,54.9,34.5,30.09,NW,314,4.0,4.0,46,0.00,,---,0.00,VWS V14.01,2013-03-02 13:20:00,
2013-03-02 08:21:00,54.9,34.5,30.09,NW,314,4.0,4.0,46,0.00,,---,0.00,VWS V14.01,2013-03-02 13:21:00,
2013-03-02 08:22:00,54.9,34.5,30.09,NW,314,4.0,4.0,46,0.00,,---,0.00,VWS V14.01,2013-03-02 13:22:00,
2013-03-02 08:23:00,54.9,34.5,30.09,NW,314,4.0,4.0,46,0.00,,---,0.00,VWS V14.01,2013-03-02 13:23:00,
2013-03-02 08:25:00,54.9,34.5,30.09,NW,314,4.0,4.0,46,0.00,,---,0.00,VWS V14.01,2013-03-02 13:25:00,
2013-03-02 08:26:00,54.9,34.5,30.09,NW,314,4.0,4.0,46,0.00,,---,0.00,VWS V14.01,2013-03-02 13:26:00,
2013-03-02 08:27:00,55.0,34.7,30.09,NW,314,4.0,4.0,46,0.00,,---,0.00,VWS V14.01,2013-03-02 13:27:00,
2013-03-02 08:28:00,55.0,34.7,30.09,NW,314,4.0,4.0,46,0.00,,---,0.00,VWS V14.01,2013-03-02 13:28:00,
2013-03-02 08:30:00,55.0,34.7,30.09,NW,314,4.0,4.0,46,0.00,,---,0.00,VWS V14.01,2013-03-02 13:30:00,
2013-03-02 08:31:00,55.0,34.7,30.09,NW,314,4.0,4.0,46,0.00,,---,0.00,VWS V14.01,2013-03-02 13:31:00,
2013-03-02 08:32:00,55.0,34.7,30.09,NW,314,4.0,4.0,46,0.00,,---,0.00,VWS V14.01,2013-03-02 13:32:00,
2013-03-02 08:33:00,55.0,34.7,30.09,NW,314,4.0,4.0,46,0.00,,---,0.00,VWS V14.01,2013-03-02 13:33:00,
2013-03-02 08:35:00,55.2,33.1,30.09,North,357,5.4,5.4,43,0.00,,---,0.00,VWS V14.01,2013-03-02 13:35:00,
2013-03-02 08:36:00,55.2,33.1,30.09,North,357,5.4,5.4,43,0.00,,---,0.00,VWS V14.01,2013-03-02 13:36:00,
2013-03-02 08:37:00,55.2,33.1,30.09,NNW,330,3.6,5.4,43,0.00,,---,0.00,VWS V14.01,2013-03-02 13:37:00,
2013-03-02 08:38:00,55.2,33.1,30.09,NNW,330,3.6,3.6,43,0.00,,---,0.00,VWS V14.01,2013-03-02 13:38:00,
2013-03-02 08:40:00,55.2,33.1,30.09,NW,324,5.8,5.8,43,0.00,,---,0.00,VWS V14.01,2013-03-02 13:40:00,
2013-03-02 08:41:00,55.2,33.1,30.09,NW,324,5.8,5.8,43,0.00,,---,0.00,VWS V14.01,2013-03-02 13:41:00,
2013-03-02 08:43:00,55.2,32.0,30.09,West,269,3.6,3.6,41,0.00,,---,0.00,VWS V14.01,2013-03-02 13:43:00,
2013-03-02 08:45:00,55.2,32.0,30.09,NNW,328,4.9,4.9,41,0.00,,---,0.00,VWS V14.01,2013-03-02 13:45:00,
2013-03-02 08:46:00,55.2,32.0,30.09,NNW,328,4.9,4.9,41,0.00,,---,0.00,VWS V14.01,2013-03-02 13:46:00,
2013-03-02 08:48:00,55.2,32.0,30.09,NNW,328,4.9,4.9,41,0.00,,---,0.00,VWS V14.01,2013-03-02 13:48:00,
2013-03-02 08:50:00,55.2,32.0,30.09,NNW,348,8.1,8.1,41,0.00,,---,0.00,VWS V14.01,2013-03-02 13:50:00,
2013-03-02 08:51:00,55.2,32.0,30.09,North,357,3.1,8.1,41,0.00,,---,0.00,VWS V14.01,2013-03-02 13:51:00,
2013-03-02 08:53:00,55.2,32.0,30.09,North,357,3.1,3.1,41,0.00,,---,0.00,VWS V14.01,2013-03-02 13:53:00,
2013-03-02 08:55:00,55.4,30.9,30.09,NW,323,5.4,5.4,39,0.00,,---,0.00,VWS V14.01,2013-03-02 13:55:00,
2013-03-02 08:57:00,55.4,30.9,30.06,NW,323,5.4,5.4,39,0.00,,---,0.00,VWS V14.01,2013-03-02 13:57:00,
2013-03-02 08:58:00,55.4,30.9,30.06,NNW,334,7.6,7.6,39,0.00,,---,0.00,VWS V14.01,2013-03-02 13:58:00,
2013-03-02 09:00:00,55.4,30.9,30.06,NW,321,4.0,7.6,39,0.00,,---,0.00,VWS V14.01,2013-03-02 14:00:00,
2013-03-02 09:02:00,55.4,30.9,30.06,NW,321,4.0,4.0,39,0.00,,---,0.00,VWS V14.01,2013-03-02 14:02:00,
2013-03-02 09:03:00,55.8,31.2,30.06,NW,321,4.0,4.0,39,0.00,,---,0.00,VWS V14.01,2013-03-02 14:03:00,
2013-03-02 09:05:00,55.8,31.2,30.06,WNW,300,0.0,3.6,39,0.00,,---,0.00,VWS V14.01,2013-03-02 14:05:00,
2013-03-02 09:07:00,55.8,31.2,30.06,WNW,300,0.0,0.0,39,0.00,,---,0.00,VWS V14.01,2013-03-02 14:07:00,
2013-03-02 09:08:00,55.8,31.2,30.06,North,353,3.6,3.6,39,0.00,,---,0.00,VWS V14.01,2013-03-02 14:08:00,
2013-03-02 09:11:00,56.1,31.5,30.06,North,353,3.6,3.6,39,0.00,,---,0.00,VWS V14.01,2013-03-02 14:11:00,
2013-03-02 09:12:00,56.1,31.5,30.06,North,353,3.6,3.6,39,0.00,,---,0.00,VWS V14.01,2013-03-02 14:12:00,
2013-03-02 09:13:00,56.1,31.5,30.06,NE,36,2.7,2.7,39,0.00,,---,0.00,VWS V14.01,2013-03-02 14:13:00,
2013-03-02 09:16:00,56.1,31.5,30.06,NE,36,2.7,2.7,39,0.00,,---,0.00,VWS V14.01,2013-03-02 14:16:00,
2013-03-02 09:17:00,56.1,31.5,30.06,NW,320,5.8,5.8,39,0.00,,---,0.00,VWS V14.01,2013-03-02 14:17:00,
2013-03-02 09:18:00,56.1,31.5,30.06,NW,321,3.6,3.6,39,0.00,,---,0.00,VWS V14.01,2013-03-02 14:18:00,
2013-03-02 09:21:00,57.2,31.8,30.06,NNW,336,4.0,4.0,38,0.00,,---,0.00,VWS V14.01,2013-03-02 14:21:00,
2013-03-02 09:22:00,57.2,31.8,30.06,NNW,336,4.0,4.0,38,0.00,,---,0.00,VWS V14.01,2013-03-02 14:22:00,
2013-03-02 09:23:00,57.2,31.8,30.06,NNW,336,4.0,4.0,38,0.00,,---,0.00,VWS V14.01,2013-03-02 14:23:00,
2013-03-02 09:24:00,57.2,31.8,30.06,NNW,336,4.0,4.0,38,0.00,,---,0.00,VWS V14.01,2013-03-02 14:24:00,
2013-03-02 09:26:00,57.4,32.0,30.06,North,1,3.6,4.0,38,0.00,,---,0.00,VWS V14.01,2013-03-02 14:26:00,
2013-03-02 09:27:00,57.4,32.0,30.06,NW,312,4.0,4.0,38,0.00,,---,0.00,VWS V14.01,2013-03-02 14:27:00,
2013-03-02 09:28:00,57.4,32.0,30.06,NW,312,4.0,4.0,38,0.00,,---,0.00,VWS V14.01,2013-03-02 14:28:00,
2013-03-02 09:29:00,57.4,32.0,30.06,NW,312,4.0,4.0,38,0.00,,---,0.00,VWS V14.01,2013-03-02 14:29:00,
2013-03-02 09:31:00,57.4,32.0,30.06,West,266,4.0,4.0,38,0.00,,---,0.00,VWS V14.01,2013-03-02 14:31:00,
2013-03-02 09:32:00,57.4,32.0,30.09,West,266,4.0,4.0,38,0.00,,---,0.00,VWS V14.01,2013-03-02 14:32:00,
2013-03-02 09:33:00,57.4,32.0,30.09,NNE,19,2.7,4.0,38,0.00,,---,0.00,VWS V14.01,2013-03-02 14:33:00,
2013-03-02 09:34:00,57.4,32.0,30.09,NNE,19,2.7,2.7,38,0.00,,---,0.00,VWS V14.01,2013-03-02 14:34:00,
2013-03-02 09:36:00,57.4,32.0,30.09,North,357,2.2,4.9,38,0.00,,---,0.00,VWS V14.01,2013-03-02 14:36:00,
2013-03-02 09:37:00,57.4,32.0,30.09,North,357,2.2,2.2,38,0.00,,---,0.00,VWS V14.01,2013-03-02 14:37:00,
2013-03-02 09:38:00,57.4,32.0,30.09,North,357,2.2,2.2,38,0.00,,---,0.00,VWS V14.01,2013-03-02 14:38:00,
2013-03-02 09:39:00,57.4,32.0,30.09,North,357,2.2,2.2,38,0.00,,---,0.00,VWS V14.01,2013-03-02 14:39:00,
2013-03-02 09:41:00,57.9,32.5,30.09,North,353,3.6,3.6,38,0.00,,---,0.00,VWS V14.01,2013-03-02 14:41:00,
2013-03-02 09:42:00,57.9,32.5,30.09,North,353,3.6,3.6,38,0.00,,---,0.00,VWS V14.01,2013-03-02 14:42:00,
2013-03-02 09:44:00,57.9,32.5,30.09,North,353,3.6,3.6,38,0.00,,---,0.00,VWS V14.01,2013-03-02 14:44:00,
2013-03-02 09:46:00,57.9,32.5,30.09,NW,306,5.8,5.8,38,0.00,,---,0.00,VWS V14.01,2013-03-02 14:46:00,
2013-03-02 09:47:00,57.9,32.5,30.09,NW,306,5.8,5.8,38,0.00,,---,0.00,VWS V14.01,2013-03-02 14:47:00,
2013-03-02 09:49:00,57.9,32.5,30.09,North,1,5.8,5.8,38,0.00,,---,0.00,VWS V14.01,2013-03-02 14:49:00,
2013-03-02 09:51:00,57.9,32.5,30.09,North,1,5.8,5.8,38,0.00,,---,0.00,VWS V14.01,2013-03-02 14:51:00,
2013-03-02 09:52:00,57.9,32.5,30.09,North,1,5.8,5.8,38,0.00,,---,0.00,VWS V14.01,2013-03-02 14:52:00,
2013-03-02 09:54:00,57.9,32.5,30.06,NNW,338,3.6,3.6,38,0.00,,---,0.00,VWS V14.01,2013-03-02 14:54:00,
2013-03-02 09:55:00,57.9,32.5,30.06,NW,325,2.7,2.7,38,0.00,,---,0.00,VWS V14.01,2013-03-02 14:55:00,
2013-03-02 09:56:00,57.9,32.5,30.06,NW,326,5.4,5.4,38,0.00,,---,0.00,VWS V14.01,2013-03-02 14:56:00,
2013-03-02 09:58:00,57.9,32.5,30.06,NW,313,2.2,2.2,38,0.00,,---,0.00,VWS V14.01,2013-03-02 14:58:00,
2013-03-02 10:00:00,57.9,32.5,30.06,NW,313,2.2,2.2,38,0.00,,---,0.00,VWS V14.01,2013-03-02 15:00:00,
2013-03-02 10:01:00,57.9,32.5,30.06,NW,311,2.7,2.7,38,0.00,,---,0.00,VWS V14.01,2013-03-02 15:01:00,
2013-03-02 10:03:00,58.6,32.5,30.06,NW,308,2.7,2.7,37,0.00,,---,0.00,VWS V14.01,2013-03-02 15:03:00,
2013-03-02 10:05:00,58.6,32.5,30.06,North,0,4.0,4.0,37,0.00,,---,0.00,VWS V14.01,2013-03-02 15:05:00,
2013-03-02 10:06:00,58.6,32.5,30.06,NNW,338,7.6,7.6,37,0.00,,---,0.00,VWS V14.01,2013-03-02 15:06:00,
2013-03-02 10:08:00,58.6,32.5,30.06,NNW,338,7.6,7.6,37,0.00,,---,0.00,VWS V14.01,2013-03-02 15:08:00,
2013-03-02 10:10:00,58.6,32.5,30.06,NNW,338,7.6,7.6,37,0.00,,---,0.00,VWS V14.01,2013-03-02 15:10:00,
2013-03-02 10:12:00,58.6,32.5,30.06,NNW,327,3.6,3.6,37,0.00,,---,0.00,VWS V14.01,2013-03-02 15:12:00,
2013-03-02 10:13:00,58.6,32.5,30.06,NNW,327,3.6,3.6,37,0.00,,---,0.00,VWS V14.01,2013-03-02 15:13:00,
2013-03-02 10:15:00,58.8,32.6,30.06,North,3,4.0,4.0,37,0.00,,---,0.00,VWS V14.01,2013-03-02 15:15:00,
2013-03-02 10:17:00,58.8,32.6,30.06,North,3,4.0,4.0,37,0.00,,---,0.00,VWS V14.01,2013-03-02 15:17:00,
2013-03-02 10:18:00,58.8,32.6,30.06,North,3,4.0,4.0,37,0.00,,---,0.00,VWS V14.01,2013-03-02 15:18:00,
2013-03-02 10:20:00,58.8,32.6,30.06,NW,307,3.6,3.6,37,0.00,,---,0.00,VWS V14.01,2013-03-02 15:20:00,
2013-03-02 10:22:00,58.8,32.6,30.06,NW,307,3.6,3.6,37,0.00,,---,0.00,VWS V14.01,2013-03-02 15:22:00,
2013-03-02 10:23:00,58.8,32.6,30.06,NW,307,3.6,3.6,37,0.00,,---,0.00,VWS V14.01,2013-03-02 15:23:00,
2013-03-02 10:25:00,58.8,32.6,30.06,North,353,4.0,4.0,37,0.00,,---,0.00,VWS V14.01,2013-03-02 15:25:00,
2013-03-02 10:27:00,58.8,32.6,30.06,North,353,4.0,4.0,37,0.00,,---,0.00,VWS V14.01,2013-03-02 15:27:00,
2013-03-02 10:28:00,58.8,32.6,30.06,North,353,4.0,4.0,37,0.00,,---,0.00,VWS V14.01,2013-03-02 15:28:00,
2013-03-02 10:30:00,59.4,32.4,30.06,NNW,328,6.3,6.3,36,0.00,,---,0.00,VWS V14.01,2013-03-02 15:30:00,
2013-03-02 10:32:00,59.4,32.4,30.06,NNW,328,6.3,6.3,36,0.00,,---,0.00,VWS V14.01,2013-03-02 15:32:00,
2013-03-02 10:33:00,59.4,32.4,30.06,NNW,340,3.6,6.3,36,0.00,,---,0.00,VWS V14.01,2013-03-02 15:33:00,
2013-03-02 10:35:00,59.4,32.4,30.06,NNW,330,5.8,5.8,36,0.00,,---,0.00,VWS V14.01,2013-03-02 15:35:00,
2013-03-02 10:37:00,59.4,32.4,30.06,NW,319,5.4,5.8,36,0.00,,---,0.00,VWS V14.01,2013-03-02 15:37:00,
2013-03-02 10:38:00,59.4,32.4,30.06,NW,319,5.4,5.4,36,0.00,,---,0.00,VWS V14.01,2013-03-02 15:38:00,
2013-03-02 10:40:00,60.1,32.4,30.06,NW,319,5.4,5.4,35,0.00,,---,0.00,VWS V14.01,2013-03-02 15:40:00,
2013-03-02 10:42:00,60.1,32.4,30.06,NNW,334,4.0,4.0,35,0.00,,---,0.00,VWS V14.01,2013-03-02 15:42:00,
2013-03-02 10:43:00,60.1,32.4,30.06,NNW,334,4.0,4.0,35,0.00,,---,0.00,VWS V14.01,2013-03-02 15:43:00,
2013-03-02 10:45:00,60.1,32.4,30.06,NNW,334,4.0,4.0,35,0.00,,---,0.00,VWS V14.01,2013-03-02 15:45:00,
2013-03-02 10:47:00,60.1,32.4,30.06,North,353,8.7,8.7,35,0.00,,---,0.00,VWS V14.01,2013-03-02 15:47:00,
2013-03-02 10:49:00,60.1,32.4,30.06,North,353,8.7,8.7,35,0.00,,---,0.00,VWS V14.01,2013-03-02 15:49:00,
2013-03-02 10:50:00,60.1,32.4,30.06,North,353,8.7,8.7,35,0.00,,---,0.00,VWS V14.01,2013-03-02 15:50:00,
2013-03-02 10:52:00,60.1,32.4,30.06,North,353,5.8,5.8,35,0.00,,---,0.00,VWS V14.01,2013-03-02 15:52:00,
2013-03-02 10:54:00,60.1,32.4,30.06,NNW,337,2.7,2.7,35,0.00,,---,0.00,VWS V14.01,2013-03-02 15:54:00,
2013-03-02 10:55:00,60.1,32.4,30.06,West,274,2.7,2.7,35,0.00,,---,0.00,VWS V14.01,2013-03-02 15:55:00,
2013-03-02 10:57:00,61.2,33.3,30.06,West,274,2.7,2.7,35,0.00,,---,0.00,VWS V14.01,2013-03-02 15:57:00,
2013-03-02 10:59:00,61.2,33.3,30.06,West,274,2.7,2.7,35,0.00,,---,0.00,VWS V14.01,2013-03-02 15:59:00,
2013-03-02 11:00:00,61.2,33.3,30.06,North,353,5.8,5.8,35,0.00,,---,0.00,VWS V14.01,2013-03-02 16:00:00,
2013-03-02 11:01:00,61.2,33.3,30.06,North,353,5.8,5.8,35,0.00,,---,0.00,VWS V14.01,2013-03-02 16:01:00,
2013-03-02 11:03:00,61.2,33.3,30.06,NNW,332,3.6,3.6,35,0.00,,---,0.00,VWS V14.01,2013-03-02 16:03:00,
2013-03-02 11:04:00,61.5,33.6,30.06,WNW,301,5.4,5.4,35,0.00,,---,0.00,VWS V14.01,2013-03-02 16:04:00,
2013-03-02 11:05:00,61.5,33.6,30.06,WNW,301,5.4,5.4,35,0.00,,---,0.00,VWS V14.01,2013-03-02 16:05:00,
2013-03-02 11:06:00,61.5,33.6,30.06,WNW,301,5.4,5.4,35,0.00,,---,0.00,VWS V14.01,2013-03-02 16:06:00,
2013-03-02 11:08:00,61.5,33.6,30.06,WNW,301,5.4,5.4,35,0.00,,---,0.00,VWS V14.01,2013-03-02 16:08:00,
2013-03-02 11:09:00,61.5,33.6,30.06,NNW,328,4.0,4.0,35,0.00,,---,0.00,VWS V14.01,2013-03-02 16:09:00,
2013-03-02 11:10:00,61.5,33.6,30.06,NNW,328,4.0,4.0,35,0.00,,---,0.00,VWS V14.01,2013-03-02 16:10:00,
2013-03-02 11:13:00,61.5,33.6,30.06,NNW,328,3.6,3.6,35,0.00,,---,0.00,VWS V14.01,2013-03-02 16:13:00,
2013-03-02 11:14:00,61.5,33.6,30.06,NW,313,5.4,5.4,35,0.00,,---,0.00,VWS V14.01,2013-03-02 16:14:00,
2013-03-02 11:15:00,61.5,33.6,30.06,NW,313,5.4,5.4,35,0.00,,---,0.00,VWS V14.01,2013-03-02 16:15:00,
2013-03-02 11:16:00,61.5,33.6,30.06,NW,313,5.4,5.4,35,0.00,,---,0.00,VWS V14.01,2013-03-02 16:16:00,
2013-03-02 11:18:00,61.5,33.6,30.06,WNW,294,5.4,5.4,35,0.00,,---,0.00,VWS V14.01,2013-03-02 16:18:00,
2013-03-02 11:19:00,61.5,33.6,30.06,WNW,294,5.4,5.4,35,0.00,,---,0.00,VWS V14.01,2013-03-02 16:19:00,
2013-03-02 11:20:00,61.5,33.6,30.06,WNW,294,5.4,5.4,35,0.00,,---,0.00,VWS V14.01,2013-03-02 16:20:00,
2013-03-02 11:21:00,61.5,33.6,30.06,WNW,294,5.4,5.4,35,0.00,,---,0.00,VWS V14.01,2013-03-02 16:21:00,
2013-03-02 11:23:00,61.7,33.8,30.06,NW,316,8.3,8.3,35,0.00,,---,0.00,VWS V14.01,2013-03-02 16:23:00,
2013-03-02 11:24:00,61.7,33.8,30.06,NW,316,8.3,8.3,35,0.00,,---,0.00,VWS V14.01,2013-03-02 16:24:00,
2013-03-02 11:25:00,61.7,33.8,30.06,West,267,4.0,8.3,35,0.00,,---,0.00,VWS V14.01,2013-03-02 16:25:00,
2013-03-02 11:26:00,61.7,33.8,30.06,West,267,4.0,4.0,35,0.00,,---,0.00,VWS V14.01,2013-03-02 16:26:00,
2013-03-02 11:28:00,61.9,34.0,30.06,NW,312,7.2,7.2,35,0.00,,---,0.00,VWS V14.01,2013-03-02 16:28:00,
2013-03-02 11:29:00,61.9,34.0,30.06,NW,312,7.2,7.2,35,0.00,,---,0.00,VWS V14.01,2013-03-02 16:29:00,
2013-03-02 11:30:00,61.9,34.0,30.06,NW,321,4.0,7.2,35,0.00,,---,0.00,VWS V14.01,2013-03-02 16:30:00,
2013-03-02 11:31:00,61.9,34.0,30.06,NW,305,3.6,4.0,35,0.00,,---,0.00,VWS V14.01,2013-03-02 16:31:00,
2013-03-02 11:33:00,61.9,34.0,30.06,NW,305,3.6,3.6,35,0.00,,---,0.00,VWS V14.01,2013-03-02 16:33:00,
2013-03-02 11:34:00,61.9,34.0,30.06,NW,305,3.6,3.6,35,0.00,,---,0.00,VWS V14.01,2013-03-02 16:34:00,
2013-03-02 11:35:00,61.9,34.0,30.06,NNW,327,3.1,3.1,35,0.00,,---,0.00,VWS V14.01,2013-03-02 16:35:00,
2013-03-02 11:36:00,61.9,34.0,30.06,NNE,27,4.0,4.0,35,0.00,,---,0.00,VWS V14.01,2013-03-02 16:36:00,
2013-03-02 11:39:00,61.9,34.0,30.06,NNE,27,4.0,4.0,35,0.00,,---,0.00,VWS V14.01,2013-03-02 16:39:00,
2013-03-02 11:40:00,61.9,34.0,30.06,NW,316,8.1,8.1,35,0.00,,---,0.00,VWS V14.01,2013-03-02 16:40:00,
2013-03-02 11:41:00,61.9,34.0,30.06,NW,316,8.1,8.1,35,0.00,,---,0.00,VWS V14.01,2013-03-02 16:41:00,
2013-03-02 11:44:00,61.9,34.0,30.06,North,4,3.6,8.1,35,0.00,,---,0.00,VWS V14.01,2013-03-02 16:44:00,
2013-03-02 11:45:00,61.9,34.0,30.06,North,4,3.6,3.6,35,0.00,,---,0.00,VWS V14.01,2013-03-02 16:45:00,
2013-03-02 11:46:00,61.9,34.0,30.06,North,4,3.6,3.6,35,0.00,,---,0.00,VWS V14.01,2013-03-02 16:46:00,
2013-03-02 11:49:00,61.9,34.0,30.06,NW,312,4.0,4.0,35,0.00,,---,0.00,VWS V14.01,2013-03-02 16:49:00,
2013-03-02 11:50:00,61.9,34.0,30.06,NW,319,4.0,4.0,35,0.00,,---,0.00,VWS V14.01,2013-03-02 16:50:00,
2013-03-02 11:51:00,61.9,34.0,30.06,NW,319,4.0,4.0,35,0.00,,---,0.00,VWS V14.01,2013-03-02 16:51:00,
2013-03-02 11:54:00,61.9,34.0,30.06,NW,307,7.6,7.6,35,0.00,,---,0.00,VWS V14.01,2013-03-02 16:54:00,
2013-03-02 11:55:00,61.9,34.0,30.06,NW,307,7.6,7.6,35,0.00,,---,0.00,VWS V14.01,2013-03-02 16:55:00,
2013-03-02 11:56:00,61.9,34.0,30.06,NW,307,7.6,7.6,35,0.00,,---,0.00,VWS V14.01,2013-03-02 16:56:00,
2013-03-02 11:57:00,61.9,34.0,30.06,NW,307,7.6,7.6,35,0.00,,---,0.00,VWS V14.01,2013-03-02 16:57:00,
2013-03-02 11:59:00,61.9,34.0,30.06,WNW,291,3.6,3.6,35,0.00,,---,0.00,VWS V14.01,2013-03-02 16:59:00,
2013-03-02 12:00:00,61.9,34.0,30.06,NW,314,5.4,5.4,35,0.00,,---,0.00,VWS V14.01,2013-03-02 17:00:00,
2013-03-02 12:01:00,61.9,34.0,30.06,NW,314,5.4,5.4,35,0.00,,---,0.00,VWS V14.01,2013-03-02 17:01:00,
2013-03-02 12:02:00,61.9,34.0,30.06,North,3,5.4,5.4,35,0.00,,---,0.00,VWS V14.01,2013-03-02 17:02:00,
2013-03-02 12:04:00,61.9,34.0,30.06,North,3,5.4,5.4,35,0.00,,---,0.00,VWS V14.01,2013-03-02 17:04:00,
2013-03-02 12:05:00,61.9,34.0,30.06,North,3,5.4,5.4,35,0.00,,---,0.00,VWS V14.01,2013-03-02 17:05:00,
2013-03-02 12:06:00,61.9,34.0,30.06,North,3,5.4,5.4,35,0.00,,---,0.00,VWS V14.01,2013-03-02 17:06:00,
2013-03-02 12:09:00,61.9,34.0,30.03,WNW,286,5.4,5.4,35,0.00,,---,0.00,VWS V14.01,2013-03-02 17:09:00,
2013-03-02 12:10:00,61.9,34.0,30.03,NW,313,5.8,8.1,35,0.00,,---,0.00,VWS V14.01,2013-03-02 17:10:00,
2013-03-02 12:11:00,61.9,34.0,30.03,NW,313,5.8,5.8,35,0.00,,---,0.00,VWS V14.01,2013-03-02 17:11:00,
2013-03-02 12:15:00,61.9,34.0,30.03,NW,313,5.8,5.8,35,0.00,,---,0.00,VWS V14.01,2013-03-02 17:15:00,
2013-03-02 12:16:00,63.7,35.5,30.03,NW,305,8.3,8.3,35,0.00,,---,0.00,VWS V14.01,2013-03-02 17:16:00,
2013-03-02 12:17:00,63.7,35.5,30.03,NW,305,8.3,8.3,35,0.00,,---,0.00,VWS V14.01,2013-03-02 17:17:00,
2013-03-02 12:20:00,63.7,35.5,30.03,WNW,284,5.8,5.8,35,0.00,,---,0.00,VWS V14.01,2013-03-02 17:20:00,
2013-03-02 12:21:00,63.7,35.5,30.03,NW,306,7.6,7.6,35,0.00,,---,0.00,VWS V14.01,2013-03-02 17:21:00,
2013-03-02 12:22:00,63.7,35.5,30.03,NW,306,7.6,7.6,35,0.00,,---,0.00,VWS V14.01,2013-03-02 17:22:00,
2013-03-02 12:25:00,63.7,35.5,30.03,NNW,339,8.7,8.7,35,0.00,,---,0.00,VWS V14.01,2013-03-02 17:25:00,
2013-03-02 12:26:00,63.7,35.5,30.03,NNW,339,8.7,8.7,35,0.00,,---,0.00,VWS V14.01,2013-03-02 17:26:00,
2013-03-02 12:27:00,63.7,35.5,30.03,NNW,339,8.7,8.7,35,0.00,,---,0.00,VWS V14.01,2013-03-02 17:27:00,
2013-03-02 12:30:00,63.7,35.5,30.03,North,353,7.6,7.6,35,0.00,,---,0.00,VWS V14.01,2013-03-02 17:30:00,
2013-03-02 12:31:00,63.7,35.5,30.03,WSW,247,5.8,7.6,35,0.00,,---,0.00,VWS V14.01,2013-03-02 17:31:00,
2013-03-02 12:32:00,63.7,35.5,30.03,WSW,247,5.8,5.8,35,0.00,,---,0.00,VWS V14.01,2013-03-02 17:32:00,
2013-03-02 12:35:00,63.7,35.5,30.03,NW,315,6.3,6.3,35,0.00,,---,0.00,VWS V14.01,2013-03-02 17:35:00,
2013-03-02 12:36:00,63.7,35.5,30.03,NW,315,6.3,6.3,35,0.00,,---,0.00,VWS V14.01,2013-03-02 17:36:00,
2013-03-02 12:37:00,63.7,35.5,30.03,NNW,331,12.3,12.3,35,0.00,,---,0.00,VWS V14.01,2013-03-02 17:37:00,
2013-03-02 12:40:00,63.7,35.5,30.03,NW,313,8.7,8.7,35,0.00,,---,0.00,VWS V14.01,2013-03-02 17:40:00,
2013-03-02 12:41:00,63.7,35.5,30.03,NW,313,8.7,8.7,35,0.00,,---,0.00,VWS V14.01,2013-03-02 17:41:00,
2013-03-02 12:42:00,64.2,37.4,30.03,NW,310,7.2,8.7,37,0.00,,---,0.00,VWS V14.01,2013-03-02 17:42:00,
2013-03-02 12:45:00,64.2,37.4,30.03,NW,310,7.2,7.2,37,0.00,,---,0.00,VWS V14.01,2013-03-02 17:45:00,
2013-03-02 12:46:00,64.2,37.4,30.03,WNW,297,5.8,7.2,37,0.00,,---,0.00,VWS V14.01,2013-03-02 17:46:00,
2013-03-02 12:47:00,64.2,37.4,30.03,NW,312,3.1,5.8,37,0.00,,---,0.00,VWS V14.01,2013-03-02 17:47:00,
2013-03-02 12:50:00,64.2,37.4,30.03,NW,312,3.1,3.1,37,0.00,,---,0.00,VWS V14.01,2013-03-02 17:50:00,
2013-03-02 12:51:00,64.4,36.2,30.03,WNW,287,8.3,8.3,35,0.00,,---,0.00,VWS V14.01,2013-03-02 17:51:00,
2013-03-02 12:52:00,64.4,36.2,30.03,WNW,287,8.3,8.3,35,0.00,,---,0.00,VWS V14.01,2013-03-02 17:52:00,
2013-03-02 12:55:00,64.4,36.2,30.03,NNW,329,5.4,8.7,35,0.00,,---,0.00,VWS V14.01,2013-03-02 17:55:00,
2013-03-02 12:56:00,64.4,36.2,30.03,NNW,329,5.4,5.4,35,0.00,,---,0.00,VWS V14.01,2013-03-02 17:56:00,
2013-03-02 12:57:00,64.4,36.2,30.03,WNW,302,7.6,7.6,35,0.00,,---,0.00,VWS V14.01,2013-03-02 17:57:00,
2013-03-02 13:00:00,64.4,36.9,30.03,West,276,5.4,5.4,36,0.00,,---,0.00,VWS V14.01,2013-03-02 18:00:00,
2013-03-02 13:01:00,64.4,36.9,30.03,West,276,5.4,5.4,36,0.00,,---,0.00,VWS V14.01,2013-03-02 18:01:00,
2013-03-02 13:03:00,64.4,36.9,30.03,West,276,5.4,5.4,36,0.00,,---,0.00,VWS V14.01,2013-03-02 18:03:00,
2013-03-02 13:05:00,64.4,36.9,30.03,NNW,327,6.3,6.3,36,0.00,,---,0.00,VWS V14.01,2013-03-02 18:05:00,
2013-03-02 13:06:00,64.4,36.9,30.03,NNW,327,6.3,6.3,36,0.00,,---,0.00,VWS V14.01,2013-03-02 18:06:00,
2013-03-02 13:08:00,64.4,36.9,30.03,North,353,11.0,11.0,36,0.00,,---,0.00,VWS V14.01,2013-03-02 18:08:00,
2013-03-02 13:10:00,64.4,36.9,30.03,North,353,11.0,11.0,36,0.00,,---,0.00,VWS V14.01,2013-03-02 18:10:00,
2013-03-02 13:11:00,64.4,36.9,30.03,North,353,11.0,11.0,36,0.00,,---,0.00,VWS V14.01,2013-03-02 18:11:00,
2013-03-02 13:12:00,64.4,36.9,30.03,North,353,11.0,11.0,36,0.00,,---,0.00,VWS V14.01,2013-03-02 18:12:00,
2013-03-02 13:13:00,64.8,37.9,30.03,North,353,11.0,11.0,37,0.00,,---,0.00,VWS V14.01,2013-03-02 18:13:00,
2013-03-02 13:15:00,64.8,37.9,30.03,NW,322,5.8,11.0,37,0.00,,---,0.00,VWS V14.01,2013-03-02 18:15:00,
2013-03-02 13:16:00,64.8,37.9,30.03,NW,322,5.8,5.8,37,0.00,,---,0.00,VWS V14.01,2013-03-02 18:16:00,
2013-03-02 13:17:00,64.8,37.9,30.03,NNE,12,7.6,7.6,37,0.00,,---,0.00,VWS V14.01,2013-03-02 18:17:00,
2013-03-02 13:18:00,64.8,37.9,30.03,NNE,12,7.6,7.6,37,0.00,,---,0.00,VWS V14.01,2013-03-02 18:18:00,
2013-03-02 13:20:00,64.8,37.9,30.03,NNE,12,7.6,7.6,37,0.00,,---,0.00,VWS V14.01,2013-03-02 18:20:00,
2013-03-02 13:21:00,65.1,38.2,30.03,WNW,283,3.6,7.6,37,0.00,,---,0.00,VWS V14.01,2013-03-02 18:21:00,
2013-03-02 13:22:00,65.1,38.2,30.03,WNW,283,3.6,3.6,37,0.00,,---,0.00,VWS V14.01,2013-03-02 18:22:00,
2013-03-02 13:23:00,65.1,38.2,30.03,WNW,283,3.6,3.6,37,0.00,,---,0.00,VWS V14.01,2013-03-02 18:23:00,
2013-03-02 13:25:00,65.1,38.2,30.03,WNW,283,3.6,3.6,37,0.00,,---,0.00,VWS V14.01,2013-03-02 18:25:00,
2013-03-02 13:26:00,65.5,37.8,30.03,NNW,335,4.0,4.0,36,0.00,,---,0.00,VWS V14.01,2013-03-02 18:26:00,
2013-03-02 13:27:00,65.5,37.8,30.03,NNW,335,4.0,4.0,36,0.00,,---,0.00,VWS V14.01,2013-03-02 18:27:00,
2013-03-02 13:28:00,65.5,37.8,30.03,NNW,335,4.0,4.0,36,0.00,,---,0.00,VWS V14.01,2013-03-02 18:28:00,
2013-03-02 13:30:00,65.5,37.8,30.03,NW,307,10.1,10.1,36,0.00,,---,0.00,VWS V14.01,2013-03-02 18:30:00,
2013-03-02 13:31:00,65.5,37.8,30.03,NW,307,10.1,10.1,36,0.00,,---,0.00,VWS V14.01,2013-03-02 18:31:00,
2013-03-02 13:32:00,65.3,37.7,30.03,NW,307,10.1,10.1,36,0.00,,---,0.00,VWS V14.01,2013-03-02 18:32:00,
2013-03-02 13:33:00,65.3,37.7,100.00,NW,307,10.1,10.1,36,0.00,,---,0.00,VWS V14.01,2013-03-02 18:33:00,
2013-03-02 13:36:00,65.3,37.7,100.00,WNW,302,13.2,13.2,36,0.00,,---,0.00,VWS V14.01,2013-03-02 18:36:00,
2013-03-02 13:37:00,64.9,37.4,100.00,West,279,10.1,13.2,36,0.00,,---,0.00,VWS V14.01,2013-03-02 18:37:00,
2013-03-02 13:38:00,64.9,37.4,100.00,West,279,10.1,10.1,36,0.00,,---,0.00,VWS V14.01,2013-03-02 18:38:00,
2013-03-02 13:41:00,64.9,37.4,100.00,North,0,6.3,6.3,36,0.00,,---,0.00,VWS V14.01,2013-03-02 18:41:00,
2013-03-02 13:42:00,64.9,37.4,100.00,North,0,6.3,6.3,36,0.00,,---,0.00,VWS V14.01,2013-03-02 18:42:00,
2013-03-02 13:43:00,64.9,37.4,100.00,North,0,6.3,6.3,36,0.00,,---,0.00,VWS V14.01,2013-03-02 18:43:00,
2013-03-02 13:46:00,64.9,37.4,100.00,WSW,253,5.8,5.8,36,0.00,,---,0.00,VWS V14.01,2013-03-02 18:46:00,
2013-03-02 13:47:00,64.9,37.4,100.00,WSW,253,5.8,5.8,36,0.00,,---,0.00,VWS V14.01,2013-03-02 18:47:00,
2013-03-02 13:48:00,64.9,37.4,100.00,NW,317,11.0,12.8,36,0.00,,---,0.00,VWS V14.01,2013-03-02 18:48:00,
2013-03-02 13:51:00,64.9,37.4,100.00,NW,317,11.0,11.0,36,0.00,,---,0.00,VWS V14.01,2013-03-02 18:51:00,
2013-03-02 13:52:00,64.9,37.4,30.00,NW,317,11.0,11.0,36,0.00,,---,0.00,VWS V14.01,2013-03-02 18:52:00,
2013-03-02 13:53:00,64.9,37.4,30.00,North,357,6.3,6.3,36,0.00,,---,0.00,VWS V14.01,2013-03-02 18:53:00,
2013-03-02 13:57:00,65.5,38.5,30.00,NW,325,5.8,5.8,37,0.00,,---,0.00,VWS V14.01,2013-03-02 18:57:00,
2013-03-02 13:58:00,65.5,38.5,30.00,NW,325,5.8,5.8,37,0.00,,---,0.00,VWS V14.01,2013-03-02 18:58:00,
2013-03-02 14:02:00,65.5,38.5,30.00,West,278,6.7,6.7,37,0.00,,---,0.00,VWS V14.01,2013-03-02 19:02:00,
2013-03-02 14:03:00,65.7,38.0,30.00,West,278,6.7,6.7,36,0.00,,---,0.00,VWS V14.01,2013-03-02 19:03:00,
2013-03-02 14:07:00,65.7,38.7,30.00,NNW,332,5.8,5.8,37,0.00,,---,0.00,VWS V14.01,2013-03-02 19:07:00,
2013-03-02 14:08:00,65.7,38.7,30.00,NNW,332,5.8,5.8,37,0.00,,---,0.00,VWS V14.01,2013-03-02 19:08:00,
2013-03-02 14:12:00,65.7,38.7,30.00,West,277,12.8,12.8,37,0.00,,---,0.00,VWS V14.01,2013-03-02 19:12:00,
2013-03-02 14:13:00,65.7,38.7,30.00,West,277,12.8,12.8,37,0.00,,---,0.00,VWS V14.01,2013-03-02 19:13:00,
2013-03-02 14:17:00,65.7,38.7,30.00,North,353,8.1,8.1,37,0.00,,---,0.00,VWS V14.01,2013-03-02 19:17:00,
2013-03-02 14:18:00,65.3,38.4,30.00,North,353,8.1,8.1,37,0.00,,---,0.00,VWS V14.01,2013-03-02 19:18:00,
2013-03-02 14:22:00,65.5,38.5,30.00,NNW,330,5.8,5.8,37,0.00,,---,0.00,VWS V14.01,2013-03-02 19:22:00,
2013-03-02 14:23:00,65.5,38.5,30.00,NNW,330,5.8,5.8,37,0.00,,---,0.00,VWS V14.01,2013-03-02 19:23:00,
2013-03-02 14:24:00,65.5,38.5,30.00,NNW,335,3.1,3.1,37,0.00,,---,0.00,VWS V14.01,2013-03-02 19:24:00,
2013-03-02 14:27:00,65.3,37.7,30.00,NNW,330,7.6,11.0,36,0.00,,---,0.00,VWS V14.01,2013-03-02 19:27:00,
2013-03-02 14:28:00,65.3,37.7,30.00,NNW,330,8.1,11.4,36,0.00,,---,0.00,VWS V14.01,2013-03-02 19:28:00,
2013-03-02 14:29:00,65.1,37.5,30.00,NW,311,5.8,9.6,36,0.00,,---,0.00,VWS V14.01,2013-03-02 19:29:00,
2013-03-02 14:32:00,64.9,37.4,30.00,WNW,286,10.5,12.3,36,0.00,,---,0.00,VWS V14.01,2013-03-02 19:32:00,
2013-03-02 14:33:00,64.6,36.3,30.00,NNW,339,10.1,10.1,35,0.00,,---,0.00,VWS V14.01,2013-03-02 19:33:00,
2013-03-02 14:34:00,64.6,36.3,30.00,NNW,335,10.1,10.1,35,0.00,,---,0.00,VWS V14.01,2013-03-02 19:34:00,
2013-03-02 14:38:00,64.6,37.0,30.00,NW,313,5.8,5.8,36,0.00,,---,0.00,VWS V14.01,2013-03-02 19:38:00,
2013-03-02 14:39:00,64.6,37.0,30.00,NW,326,10.5,13.2,36,0.00,,---,0.00,VWS V14.01,2013-03-02 19:39:00,
2013-03-02 14:43:00,64.8,37.2,30.00,NNW,337,5.4,5.8,36,0.00,,---,0.00,VWS V14.01,2013-03-02 19:43:00,
2013-03-02 14:44:00,64.9,37.4,30.00,WNW,301,8.1,8.1,36,0.00,,---,0.00,VWS V14.01,2013-03-02 19:44:00,
2013-03-02 14:48:00,65.3,37.7,30.00,NW,308,4.9,7.6,36,0.00,,---,0.00,VWS V14.01,2013-03-02 19:48:00,
2013-03-02 14:49:00,65.5,37.1,30.00,WNW,298,12.3,12.3,35,0.00,,---,0.00,VWS V14.01,2013-03-02 19:49:00,
2013-03-02 14:53:00,65.3,37.0,30.00,West,280,6.3,6.3,35,0.00,,---,0.00,VWS V14.01,2013-03-02 19:53:00,
2013-03-02 14:54:00,65.3,37.0,30.00,NNW,346,6.3,11.0,35,0.00,,---,0.00,VWS V14.01,2013-03-02 19:54:00,
2013-03-02 14:58:00,65.1,37.5,30.00,NNW,335,5.4,5.8,36,0.00,,---,0.00,VWS V14.01,2013-03-02 19:58:00,
2013-03-02 14:59:00,65.1,37.5,30.00,NNW,335,5.4,5.4,36,0.00,,---,0.00,VWS V14.01,2013-03-02 19:59:00,
2013-03-02 15:03:00,65.1,37.5,30.00,NNW,335,5.4,5.4,36,0.00,,---,0.00,VWS V14.01,2013-03-02 20:03:00,
2013-03-02 15:04:00,65.1,37.5,30.00,NW,308,5.8,5.8,36,0.00,,---,0.00,VWS V14.01,2013-03-02 20:04:00,
2013-03-02 15:08:00,65.1,37.5,30.00,NW,308,5.8,5.8,36,0.00,,---,0.00,VWS V14.01,2013-03-02 20:08:00,
2013-03-02 15:09:00,65.1,37.5,30.00,NW,308,5.8,5.8,36,0.00,,---,0.00,VWS V14.01,2013-03-02 20:09:00,
2013-03-02 15:13:00,64.4,36.2,30.00,West,268,8.1,8.1,35,0.00,,---,0.00,VWS V14.01,2013-03-02 20:13:00,
2013-03-02 15:14:00,64.4,36.2,30.00,West,268,8.1,8.1,35,0.00,,---,0.00,VWS V14.01,2013-03-02 20:14:00,
2013-03-02 15:18:00,64.4,36.2,30.00,NNW,340,8.3,8.3,35,0.00,,---,0.00,VWS V14.01,2013-03-02 20:18:00,
2013-03-02 15:20:00,64.4,36.2,30.00,NNW,340,8.3,8.3,35,0.00,,---,0.00,VWS V14.01,2013-03-02 20:20:00,
2013-03-02 15:23:00,63.9,35.7,30.00,NNW,340,8.3,8.3,35,0.00,,---,0.00,VWS V14.01,2013-03-02 20:23:00,
2013-03-02 15:25:00,63.9,35.7,30.00,NNW,340,8.3,8.3,35,0.00,,---,0.00,VWS V14.01,2013-03-02 20:25:00,
2013-03-02 15:28:00,63.9,35.7,30.00,NNW,340,8.3,8.3,35,0.00,,---,0.00,VWS V14.01,2013-03-02 20:28:00,
2013-03-02 15:29:00,63.9,35.7,30.00,NNW,340,8.3,8.3,35,0.00,,---,0.00,VWS V14.01,2013-03-02 20:29:00,
2013-03-02 15:30:00,63.9,35.7,30.00,West,273,8.1,8.3,35,0.00,,---,0.00,VWS V14.01,2013-03-02 20:30:00,
2013-03-02 15:33:00,63.9,35.7,30.00,West,273,8.1,8.1,35,0.00,,---,0.00,VWS V14.01,2013-03-02 20:33:00,
2013-03-02 15:34:00,63.9,35.7,30.00,West,273,8.1,8.1,35,0.00,,---,0.00,VWS V14.01,2013-03-02 20:34:00,
2013-03-02 15:35:00,63.9,35.7,30.00,NNW,333,3.6,3.6,35,0.00,,---,0.00,VWS V14.01,2013-03-02 20:35:00,
2013-03-02 15:38:00,63.9,35.7,30.00,NNW,333,3.6,3.6,35,0.00,,---,0.00,VWS V14.01,2013-03-02 20:38:00,
2013-03-02 15:39:00,63.9,35.7,30.00,NW,314,5.8,5.8,35,0.00,,---,0.00,VWS V14.01,2013-03-02 20:39:00,
2013-03-02 15:40:00,63.9,35.7,30.00,NW,314,5.8,5.8,35,0.00,,---,0.00,VWS V14.01,2013-03-02 20:40:00,
2013-03-02 15:43:00,63.9,35.7,30.00,NNW,330,5.8,5.8,35,0.00,,---,0.00,VWS V14.01,2013-03-02 20:43:00,
2013-03-02 15:44:00,63.9,35.7,30.00,NNW,330,5.8,5.8,35,0.00,,---,0.00,VWS V14.01,2013-03-02 20:44:00,
2013-03-02 15:45:00,63.9,35.7,30.00,NNW,330,5.8,5.8,35,0.00,,---,0.00,VWS V14.01,2013-03-02 20:45:00,
2013-03-02 15:49:00,63.1,35.1,30.00,NW,310,8.1,8.1,35,0.00,,---,0.00,VWS V14.01,2013-03-02 20:49:00,
2013-03-02 15:50:00,63.1,35.1,30.00,NW,310,8.1,8.1,35,0.00,,---,0.00,VWS V14.01,2013-03-02 20:50:00,
2013-03-02 15:54:00,63.1,35.1,30.00,WNW,301,3.6,3.6,35,0.00,,---,0.00,VWS V14.01,2013-03-02 20:54:00,
2013-03-02 15:55:00,63.1,35.1,30.00,WNW,301,3.6,3.6,35,0.00,,---,0.00,VWS V14.01,2013-03-02 20:55:00,
2013-03-02 15:59:00,63.1,35.1,30.00,NW,318,5.8,5.8,35,0.00,,---,0.00,VWS V14.01,2013-03-02 20:59:00,
2013-03-02 16:00:00,63.9,36.4,30.00,NW,318,5.8,5.8,36,0.00,,---,0.00,VWS V14.01,2013-03-02 21:00:00,
2013-03-02 16:04:00,63.7,36.2,30.00,NW,318,5.8,5.8,36,0.00,,---,0.00,VWS V14.01,2013-03-02 21:04:00,
2013-03-02 16:05:00,63.7,36.2,30.00,NW,325,3.1,5.8,36,0.00,,---,0.00,VWS V14.01,2013-03-02 21:05:00,
2013-03-02 16:09:00,63.7,36.2,30.00,NW,325,3.1,3.1,36,0.00,,---,0.00,VWS V14.01,2013-03-02 21:09:00,
2013-03-02 16:10:00,63.7,36.2,30.00,NW,325,3.1,3.1,36,0.00,,---,0.00,VWS V14.01,2013-03-02 21:10:00,
2013-03-02 16:11:00,63.7,36.2,30.00,NW,325,3.1,3.1,36,0.00,,---,0.00,VWS V14.01,2013-03-02 21:11:00,
2013-03-02 16:14:00,63.7,36.2,30.00,NW,325,3.1,3.1,36,0.00,,---,0.00,VWS V14.01,2013-03-02 21:14:00,
2013-03-02 16:15:00,64.0,36.6,30.00,NW,325,3.1,3.1,36,0.00,,---,0.00,VWS V14.01,2013-03-02 21:15:00,
2013-03-02 16:16:00,64.0,36.6,30.00,NW,325,3.1,3.1,36,0.00,,---,0.00,VWS V14.01,2013-03-02 21:16:00,
2013-03-02 16:19:00,64.0,36.6,30.00,West,270,5.4,5.4,36,0.00,,---,0.00,VWS V14.01,2013-03-02 21:19:00,
2013-03-02 16:21:00,64.0,36.6,30.00,West,270,5.4,5.4,36,0.00,,---,0.00,VWS V14.01,2013-03-02 21:21:00,
2013-03-02 16:24:00,64.0,36.6,30.00,NW,321,4.9,4.9,36,0.00,,---,0.00,VWS V14.01,2013-03-02 21:24:00,
2013-03-02 16:25:00,64.0,36.6,30.00,NW,321,4.9,4.9,36,0.00,,---,0.00,VWS V14.01,2013-03-02 21:25:00,
2013-03-02 16:26:00,64.0,36.6,30.00,NW,321,4.9,4.9,36,0.00,,---,0.00,VWS V14.01,2013-03-02 21:26:00,
2013-03-02 16:29:00,63.1,35.8,30.00,NW,321,4.9,4.9,36,0.00,,---,0.00,VWS V14.01,2013-03-02 21:29:00,
2013-03-02 16:30:00,63.1,35.8,30.00,NW,321,4.9,4.9,36,0.00,,---,0.00,VWS V14.01,2013-03-02 21:30:00,
2013-03-02 16:31:00,63.1,35.8,30.00,NW,321,4.9,4.9,36,0.00,,---,0.00,VWS V14.01,2013-03-02 21:31:00,
2013-03-02 16:34:00,63.1,35.8,30.00,NNW,346,5.4,5.4,36,0.00,,---,0.00,VWS V14.01,2013-03-02 21:34:00,
2013-03-02 16:35:00,63.1,35.8,30.00,NNW,346,5.4,5.4,36,0.00,,---,0.00,VWS V14.01,2013-03-02 21:35:00,
2013-03-02 16:36:00,63.1,35.8,30.00,NNW,346,5.4,5.4,36,0.00,,---,0.00,VWS V14.01,2013-03-02 21:36:00,
2013-03-02 16:39:00,63.1,35.8,30.00,WNW,282,5.4,5.4,36,0.00,,---,0.00,VWS V14.01,2013-03-02 21:39:00,
2013-03-02 16:40:00,63.1,35.8,30.00,WNW,282,5.4,5.4,36,0.00,,---,0.00,VWS V14.01,2013-03-02 21:40:00,
2013-03-02 16:41:00,62.4,35.8,30.00,WNW,282,5.4,5.4,37,0.00,,---,0.00,VWS V14.01,2013-03-02 21:41:00,
2013-03-02 16:44:00,62.4,35.8,30.00,WNW,282,5.4,5.4,37,0.00,,---,0.00,VWS V14.01,2013-03-02 21:44:00,
2013-03-02 16:45:00,62.4,35.8,30.00,NW,305,4.9,5.4,37,0.00,,---,0.00,VWS V14.01,2013-03-02 21:45:00,
2013-03-02 16:46:00,62.4,35.8,30.00,NW,305,4.9,4.9,37,0.00,,---,0.00,VWS V14.01,2013-03-02 21:46:00,
2013-03-02 16:49:00,62.4,35.8,30.00,NW,305,4.9,4.9,37,0.00,,---,0.00,VWS V14.01,2013-03-02 21:49:00,
2013-03-02 16:51:00,62.4,35.8,30.00,NW,321,5.4,5.4,37,0.00,,---,0.00,VWS V14.01,2013-03-02 21:51:00,
2013-03-02 16:54:00,63.1,36.5,30.00,NW,308,3.1,5.4,37,0.00,,---,0.00,VWS V14.01,2013-03-02 21:54:00,
2013-03-02 16:56:00,63.1,36.5,30.00,NW,308,3.1,3.1,37,0.00,,---,0.00,VWS V14.01,2013-03-02 21:56:00,
2013-03-02 16:59:00,63.1,36.5,30.00,North,353,4.0,4.0,37,0.00,,---,0.00,VWS V14.01,2013-03-02 21:59:00,
2013-03-02 17:01:00,63.1,36.5,30.00,North,353,4.0,4.0,37,0.00,,---,0.00,VWS V14.01,2013-03-02 22:01:00,
2013-03-02 17:04:00,63.1,36.5,30.00,North,353,4.0,4.0,37,0.00,,---,0.00,VWS V14.01,2013-03-02 22:04:00,
2013-03-02 17:06:00,63.1,36.5,30.00,North,353,4.0,4.0,37,0.00,,---,0.00,VWS V14.01,2013-03-02 22:06:00,
2013-03-02 17:09:00,63.1,36.5,30.00,WNW,303,4.9,4.9,37,0.00,,---,0.00,VWS V14.01,2013-03-02 22:09:00,
2013-03-02 17:11:00,63.1,36.5,30.00,WNW,303,4.9,4.9,37,0.00,,---,0.00,VWS V14.01,2013-03-02 22:11:00,
2013-03-02 17:12:00,63.1,36.5,30.00,NW,309,6.3,6.3,37,0.00,,---,0.00,VWS V14.01,2013-03-02 22:12:00,
2013-03-02 17:15:00,63.1,36.5,30.00,NW,309,6.3,6.3,37,0.00,,---,0.00,VWS V14.01,2013-03-02 22:15:00,
2013-03-02 17:16:00,63.1,36.5,30.00,NNW,335,3.6,6.3,37,0.00,,---,0.00,VWS V14.01,2013-03-02 22:16:00,
2013-03-02 17:17:00,63.1,36.5,30.00,NNW,335,3.6,3.6,37,0.00,,---,0.00,VWS V14.01,2013-03-02 22:17:00,
2013-03-02 17:20:00,63.1,36.5,30.00,NNW,335,3.6,3.6,37,0.00,,---,0.00,VWS V14.01,2013-03-02 22:20:00,
2013-03-02 17:21:00,63.1,36.5,30.00,WNW,292,4.0,4.0,37,0.00,,---,0.00,VWS V14.01,2013-03-02 22:21:00,
2013-03-02 17:22:00,63.1,36.5,30.00,WNW,292,4.0,4.0,37,0.00,,---,0.00,VWS V14.01,2013-03-02 22:22:00,
2013-03-02 17:25:00,63.1,36.5,30.00,WNW,292,4.0,4.0,37,0.00,,---,0.00,VWS V14.01,2013-03-02 22:25:00,
2013-03-02 17:26:00,63.1,36.5,30.00,NNW,348,3.1,3.1,37,0.00,,---,0.00,VWS V14.01,2013-03-02 22:26:00,
2013-03-02 17:27:00,63.1,36.5,30.00,NNW,348,3.1,3.1,37,0.00,,---,0.00,VWS V14.01,2013-03-02 22:27:00,
2013-03-02 17:30:00,63.1,36.5,30.00,NW,316,5.4,5.4,37,0.00,,---,0.00,VWS V14.01,2013-03-02 22:30:00,
2013-03-02 17:31:00,63.1,36.5,30.00,NW,316,5.4,5.4,37,0.00,,---,0.00,VWS V14.01,2013-03-02 22:31:00,
2013-03-02 17:32:00,63.1,36.5,30.00,NW,316,5.4,5.4,37,0.00,,---,0.00,VWS V14.01,2013-03-02 22:32:00,
2013-03-02 17:35:00,62.4,37.2,30.00,NNW,329,3.6,3.6,39,0.00,,---,0.00,VWS V14.01,2013-03-02 22:35:00,
2013-03-02 17:36:00,62.4,37.2,30.00,NNW,329,3.6,3.6,39,0.00,,---,0.00,VWS V14.01,2013-03-02 22:36:00,
2013-03-02 17:37:00,62.4,37.2,30.00,NNW,329,3.6,3.6,39,0.00,,---,0.00,VWS V14.01,2013-03-02 22:37:00,
2013-03-02 17:40:00,62.4,37.2,30.00,NNW,329,3.6,3.6,39,0.00,,---,0.00,VWS V14.01,2013-03-02 22:40:00,
2013-03-02 17:42:00,62.4,37.2,30.00,NNW,329,3.6,3.6,39,0.00,,---,0.00,VWS V14.01,2013-03-02 22:42:00,
2013-03-02 17:45:00,62.4,37.2,30.00,NNW,346,4.0,4.0,39,0.00,,---,0.00,VWS V14.01,2013-03-02 22:45:00,
2013-03-02 17:47:00,61.5,35.7,30.00,NNW,346,4.0,4.0,38,0.00,,---,0.00,VWS V14.01,2013-03-02 22:47:00,
2013-03-02 17:50:00,61.5,35.7,30.00,NNW,346,4.0,4.0,38,0.00,,---,0.00,VWS V14.01,2013-03-02 22:50:00,
2013-03-02 17:52:00,61.5,35.7,30.00,WNW,296,5.8,5.8,38,0.00,,---,0.00,VWS V14.01,2013-03-02 22:52:00,
2013-03-02 17:53:00,61.5,35.7,30.00,WNW,296,5.8,5.8,38,0.00,,---,0.00,VWS V14.01,2013-03-02 22:53:00,
2013-03-02 17:55:00,61.5,35.7,30.00,WNW,296,5.8,5.8,38,0.00,,---,0.00,VWS V14.01,2013-03-02 22:55:00,
2013-03-02 17:57:00,61.5,35.7,30.00,WNW,286,2.7,2.7,38,0.00,,---,0.00,VWS V14.01,2013-03-02 22:57:00,
2013-03-02 17:58:00,60.6,34.9,30.00,WNW,286,2.7,2.7,38,0.00,,---,0.00,VWS V14.01,2013-03-02 22:58:00,
2013-03-02 18:01:00,60.6,34.9,30.00,NNW,342,4.9,4.9,38,0.00,,---,0.00,VWS V14.01,2013-03-02 23:01:00,
2013-03-02 18:02:00,60.6,34.9,30.00,NNW,342,4.9,4.9,38,0.00,,---,0.00,VWS V14.01,2013-03-02 23:02:00,
2013-03-02 18:03:00,60.6,34.9,30.00,NNW,342,4.9,4.9,38,0.00,,---,0.00,VWS V14.01,2013-03-02 23:03:00,
2013-03-02 18:06:00,60.6,34.9,30.00,NNW,342,4.9,4.9,38,0.00,,---,0.00,VWS V14.01,2013-03-02 23:06:00,
2013-03-02 18:07:00,60.6,34.9,30.00,NNW,342,4.9,4.9,38,0.00,,---,0.00,VWS V14.01,2013-03-02 23:07:00,
2013-03-02 18:08:00,60.6,34.9,30.00,NNW,342,4.9,4.9,38,0.00,,---,0.00,VWS V14.01,2013-03-02 23:08:00,
2013-03-02 18:11:00,60.6,34.9,30.00,NNW,342,4.9,4.9,38,0.00,,---,0.00,VWS V14.01,2013-03-02 23:11:00,
2013-03-02 18:12:00,60.1,35.1,30.00,NNW,342,4.9,4.9,39,0.00,,---,0.00,VWS V14.01,2013-03-02 23:12:00,
2013-03-02 18:13:00,60.1,35.1,30.00,NNW,342,4.9,4.9,39,0.00,,---,0.00,VWS V14.01,2013-03-02 23:13:00,
2013-03-02 18:16:00,60.1,35.1,30.00,NNW,329,4.0,4.0,39,0.00,,---,0.00,VWS V14.01,2013-03-02 23:16:00,
2013-03-02 18:17:00,60.1,35.1,30.00,NNW,329,4.0,4.0,39,0.00,,---,0.00,VWS V14.01,2013-03-02 23:17:00,
2013-03-02 18:19:00,60.1,35.1,30.00,NNW,329,4.0,4.0,39,0.00,,---,0.00,VWS V14.01,2013-03-02 23:19:00,
2013-03-02 18:21:00,60.1,35.1,30.00,NNW,329,4.0,4.0,39,0.00,,---,0.00,VWS V14.01,2013-03-02 23:21:00,
2013-03-02 18:22:00,60.1,35.1,30.00,NNW,329,4.0,4.0,39,0.00,,---,0.00,VWS V14.01,2013-03-02 23:22:00,
2013-03-02 18:24:00,60.1,35.1,30.00,NNW,329,4.0,4.0,39,0.00,,---,0.00,VWS V14.01,2013-03-02 23:24:00,
2013-03-02 18:26:00,59.5,35.8,30.00,NNW,329,4.0,4.0,41,0.00,,---,0.00,VWS V14.01,2013-03-02 23:26:00,
2013-03-02 18:27:00,59.5,35.8,30.00,NNW,329,4.0,4.0,41,0.00,,---,0.00,VWS V14.01,2013-03-02 23:27:00,
2013-03-02 18:29:00,59.5,35.8,30.00,NNW,329,4.0,4.0,41,0.00,,---,0.00,VWS V14.01,2013-03-02 23:29:00,
2013-03-02 18:31:00,59.5,35.8,30.00,NNW,329,4.0,4.0,41,0.00,,---,0.00,VWS V14.01,2013-03-02 23:31:00,
2013-03-02 18:33:00,59.5,35.8,30.00,NNW,329,4.0,4.0,41,0.00,,---,0.00,VWS V14.01,2013-03-02 23:33:00,
2013-03-02 18:34:00,59.5,35.8,30.00,NNW,329,4.0,4.0,41,0.00,,---,0.00,VWS V14.01,2013-03-02 23:34:00,
2013-03-02 18:36:00,59.5,35.8,30.00,NW,305,6.3,6.3,41,0.00,,---,0.00,VWS V14.01,2013-03-02 23:36:00,
2013-03-02 18:38:00,59.2,35.5,30.00,NW,305,6.3,6.3,41,0.00,,---,0.00,VWS V14.01,2013-03-02 23:38:00,
2013-03-02 18:39:00,59.2,35.5,30.00,NW,305,6.3,6.3,41,0.00,,---,0.00,VWS V14.01,2013-03-02 23:39:00,
2013-03-02 18:41:00,59.2,35.5,30.00,NW,304,4.9,4.9,41,0.00,,---,0.00,VWS V14.01,2013-03-02 23:41:00,
2013-03-02 18:43:00,59.2,35.5,30.00,NW,304,4.9,4.9,41,0.00,,---,0.00,VWS V14.01,2013-03-02 23:43:00,
2013-03-02 18:44:00,59.2,35.5,30.00,NW,304,4.9,4.9,41,0.00,,---,0.00,VWS V14.01,2013-03-02 23:44:00,
2013-03-02 18:46:00,59.2,35.5,30.00,WNW,295,2.7,2.7,41,0.00,,---,0.00,VWS V14.01,2013-03-02 23:46:00,
2013-03-02 18:48:00,59.2,35.5,30.00,WNW,295,2.7,2.7,41,0.00,,---,0.00,VWS V14.01,2013-03-02 23:48:00,
2013-03-02 18:49:00,59.2,35.5,30.00,WNW,295,2.7,2.7,41,0.00,,---,0.00,VWS V14.01,2013-03-02 23:49:00,
2013-03-02 18:51:00,58.8,37.0,30.00,WNW,295,2.7,2.7,44,0.00,,---,0.00,VWS V14.01,2013-03-02 23:51:00,
2013-03-02 18:53:00,58.8,37.0,30.00,WNW,295,2.7,2.7,44,0.00,,---,0.00,VWS V14.01,2013-03-02 23:53:00,
2013-03-02 18:55:00,58.8,37.0,30.00,WNW,295,2.7,2.7,44,0.00,,---,0.00,VWS V14.01,2013-03-02 23:55:00,
2013-03-02 18:56:00,58.8,37.0,30.00,WNW,295,2.7,2.7,44,0.00,,---,0.00,VWS V14.01,2013-03-02 23:56:00,
2013-03-02 18:58:00,58.8,37.0,30.00,WNW,295,2.7,2.7,44,0.00,,---,0.00,VWS V14.01,2013-03-02 23:58:00,
2013-03-02 19:00:00,58.8,37.0,30.00,WNW,295,2.7,2.7,44,0.00,,---,0.00,VWS V14.01,2013-03-03 00:00:00,
2013-03-02 19:01:00,58.8,37.0,30.00,WNW,295,2.7,2.7,44,0.00,,---,0.00,VWS V14.01,2013-03-03 00:01:00,
2013-03-02 19:03:00,58.8,37.0,30.00,WNW,295,2.7,2.7,44,0.00,,---,0.00,VWS V14.01,2013-03-03 00:03:00,
2013-03-02 19:05:00,58.6,36.8,30.00,WNW,295,2.7,2.7,44,0.00,,---,0.00,VWS V14.01,2013-03-03 00:05:00,
2013-03-02 19:06:00,58.6,36.8,30.00,WNW,295,2.7,2.7,44,0.00,,---,0.00,VWS V14.01,2013-03-03 00:06:00,
2013-03-02 19:08:00,58.6,36.8,30.00,WNW,295,2.7,2.7,44,0.00,,---,0.00,VWS V14.01,2013-03-03 00:08:00,
2013-03-02 19:10:00,58.6,36.8,30.00,WNW,295,2.7,2.7,44,0.00,,---,0.00,VWS V14.01,2013-03-03 00:10:00,
2013-03-02 19:11:00,58.6,36.8,30.00,NW,314,3.1,3.1,44,0.00,,---,0.00,VWS V14.01,2013-03-03 00:11:00,
2013-03-02 19:13:00,58.6,36.8,30.00,NW,314,3.1,3.1,44,0.00,,---,0.00,VWS V14.01,2013-03-03 00:13:00,
2013-03-02 19:14:00,58.6,36.8,30.00,NW,314,3.1,3.1,44,0.00,,---,0.00,VWS V14.01,2013-03-03 00:14:00,
2013-03-02 19:15:00,58.6,36.8,30.00,NW,314,3.1,3.1,44,0.00,,---,0.00,VWS V14.01,2013-03-03 00:15:00,
2013-03-02 19:16:00,58.5,36.7,30.00,NW,314,3.1,3.1,44,0.00,,---,0.00,VWS V14.01,2013-03-03 00:16:00,
2013-03-02 19:18:00,58.5,36.7,30.00,NW,314,3.1,3.1,44,0.00,,---,0.00,VWS V14.01,2013-03-03 00:18:00,
2013-03-02 19:19:00,58.5,36.7,30.00,NW,314,3.1,3.1,44,0.00,,---,0.00,VWS V14.01,2013-03-03 00:19:00,
2013-03-02 19:20:00,58.5,36.7,30.00,NW,314,3.1,3.1,44,0.00,,---,0.00,VWS V14.01,2013-03-03 00:20:00,
2013-03-02 19:21:00,58.5,36.7,30.00,NW,314,3.1,3.1,44,0.00,,---,0.00,VWS V14.01,2013-03-03 00:21:00,
2013-03-02 19:23:00,58.5,36.7,30.00,NW,314,3.1,3.1,44,0.00,,---,0.00,VWS V14.01,2013-03-03 00:23:00,
2013-03-02 19:24:00,58.5,36.7,30.00,NW,314,3.1,3.1,44,0.00,,---,0.00,VWS V14.01,2013-03-03 00:24:00,
2013-03-02 19:25:00,58.5,36.7,30.00,NW,314,3.1,3.1,44,0.00,,---,0.00,VWS V14.01,2013-03-03 00:25:00,
2013-03-02 19:27:00,58.5,36.7,30.00,NW,314,3.1,3.1,44,0.00,,---,0.00,VWS V14.01,2013-03-03 00:27:00,
2013-03-02 19:28:00,58.3,37.0,30.00,NW,314,3.1,3.1,45,0.00,,---,0.00,VWS V14.01,2013-03-03 00:28:00,
2013-03-02 19:29:00,58.3,37.0,30.00,NW,314,3.1,3.1,45,0.00,,---,0.00,VWS V14.01,2013-03-03 00:29:00,
2013-03-02 19:31:00,58.3,37.0,30.00,NW,314,3.1,3.1,45,0.00,,---,0.00,VWS V14.01,2013-03-03 00:31:00,
2013-03-02 19:32:00,58.3,37.0,30.00,NW,314,3.1,3.1,45,0.00,,---,0.00,VWS V14.01,2013-03-03 00:32:00,
2013-03-02 19:33:00,58.3,37.0,30.00,NW,314,3.1,3.1,45,0.00,,---,0.00,VWS V14.01,2013-03-03 00:33:00,
2013-03-02 19:34:00,58.3,37.0,30.00,NW,314,3.1,3.1,45,0.00,,---,0.00,VWS V14.01,2013-03-03 00:34:00,
2013-03-02 19:36:00,58.3,37.0,30.00,NW,314,3.1,3.1,45,0.00,,---,0.00,VWS V14.01,2013-03-03 00:36:00,
2013-03-02 19:37:00,58.3,37.0,30.00,NW,314,3.1,3.1,45,0.00,,---,0.00,VWS V14.01,2013-03-03 00:37:00,
2013-03-02 19:38:00,58.3,37.0,30.00,NW,314,3.1,3.1,45,0.00,,---,0.00,VWS V14.01,2013-03-03 00:38:00,
2013-03-02 19:39:00,58.3,37.0,30.00,NW,314,3.1,3.1,45,0.00,,---,0.00,VWS V14.01,2013-03-03 00:39:00,
2013-03-02 19:41:00,58.3,37.0,30.00,NW,314,3.1,3.1,45,0.00,,---,0.00,VWS V14.01,2013-03-03 00:41:00,
2013-03-02 19:42:00,58.3,37.0,30.00,NW,314,3.1,3.1,45,0.00,,---,0.00,VWS V14.01,2013-03-03 00:42:00,
2013-03-02 19:43:00,58.3,37.0,30.00,NW,314,3.1,3.1,45,0.00,,---,0.00,VWS V14.01,2013-03-03 00:43:00,
2013-03-02 19:44:00,58.3,37.0,30.00,NW,314,3.1,3.1,45,0.00,,---,0.00,VWS V14.01,2013-03-03 00:44:00,
2013-03-02 19:46:00,58.1,36.9,30.00,NW,314,3.1,3.1,45,0.00,,---,0.00,VWS V14.01,2013-03-03 00:46:00,
2013-03-02 19:47:00,58.1,36.9,30.00,NW,314,3.1,3.1,45,0.00,,---,0.00,VWS V14.01,2013-03-03 00:47:00,
2013-03-02 19:48:00,58.1,36.9,30.00,NW,314,3.1,3.1,45,0.00,,---,0.00,VWS V14.01,2013-03-03 00:48:00,
2013-03-02 19:49:00,58.1,36.9,30.00,NW,314,3.1,3.1,45,0.00,,---,0.00,VWS V14.01,2013-03-03 00:49:00,
2013-03-02 19:51:00,58.1,36.9,30.00,NW,314,3.1,3.1,45,0.00,,---,0.00,VWS V14.01,2013-03-03 00:51:00,
2013-03-02 19:52:00,58.1,36.9,30.00,NW,314,3.1,3.1,45,0.00,,---,0.00,VWS V14.01,2013-03-03 00:52:00,
2013-03-02 19:53:00,58.1,36.9,30.00,NW,314,3.1,3.1,45,0.00,,---,0.00,VWS V14.01,2013-03-03 00:53:00,
2013-03-02 19:54:00,58.1,36.9,30.00,NW,314,3.1,3.1,45,0.00,,---,0.00,VWS V14.01,2013-03-03 00:54:00,
2013-03-02 19:56:00,58.1,37.5,30.00,NW,314,3.1,3.1,46,0.00,,---,0.00,VWS V14.01,2013-03-03 00:56:00,
2013-03-02 19:57:00,58.1,37.5,30.00,NW,314,3.1,3.1,46,0.00,,---,0.00,VWS V14.01,2013-03-03 00:57:00,
2013-03-02 19:58:00,58.1,37.5,30.00,NW,314,3.1,3.1,46,0.00,,---,0.00,VWS V14.01,2013-03-03 00:58:00,
2013-03-02 20:00:00,58.1,37.5,30.00,NW,314,3.1,3.1,46,0.00,,---,0.00,VWS V14.01,2013-03-03 01:00:00,
2013-03-02 20:01:00,58.1,37.5,30.00,NW,314,3.1,3.1,46,0.00,,---,0.00,VWS V14.01,2013-03-03 01:01:00,
2013-03-02 20:02:00,58.1,37.5,30.00,NW,314,3.1,3.1,46,0.00,,---,0.00,VWS V14.01,2013-03-03 01:02:00,
2013-03-02 20:03:00,58.1,37.5,30.00,NW,314,3.1,3.1,46,0.00,,---,0.00,VWS V14.01,2013-03-03 01:03:00,
2013-03-02 20:05:00,57.9,37.3,30.00,NW,314,3.1,3.1,46,0.00,,---,0.00,VWS V14.01,2013-03-03 01:05:00,
2013-03-02 20:06:00,57.9,37.3,30.00,NW,314,3.1,3.1,46,0.00,,---,0.00,VWS V14.01,2013-03-03 01:06:00,
2013-03-02 20:07:00,57.9,37.8,30.00,NW,314,3.1,3.1,47,0.00,,---,0.00,VWS V14.01,2013-03-03 01:07:00,
2013-03-02 20:08:00,57.9,37.8,30.00,NW,314,3.1,3.1,47,0.00,,---,0.00,VWS V14.01,2013-03-03 01:08:00,
2013-03-02 20:10:00,57.9,37.8,30.00,NW,314,3.1,3.1,47,0.00,,---,0.00,VWS V14.01,2013-03-03 01:10:00,
2013-03-02 20:11:00,57.9,37.8,30.00,NW,314,3.1,3.1,47,0.00,,---,0.00,VWS V14.01,2013-03-03 01:11:00,
2013-03-02 20:12:00,57.9,37.8,30.00,NW,314,3.1,3.1,47,0.00,,---,0.00,VWS V14.01,2013-03-03 01:12:00,
2013-03-02 20:14:00,57.9,37.8,30.00,NW,314,3.1,3.1,47,0.00,,---,0.00,VWS V14.01,2013-03-03 01:14:00,
2013-03-02 20:15:00,57.9,37.8,30.00,NW,314,3.1,3.1,47,0.00,,---,0.00,VWS V14.01,2013-03-03 01:15:00,
2013-03-02 20:17:00,57.9,37.8,30.00,NW,314,3.1,3.1,47,0.00,,---,0.00,VWS V14.01,2013-03-03 01:17:00,
2013-03-02 20:19:00,57.9,37.8,30.00,NW,314,3.1,3.1,47,0.00,,---,0.00,VWS V14.01,2013-03-03 01:19:00,
2013-03-02 20:20:00,57.9,37.8,30.00,NW,314,3.1,3.1,47,0.00,,---,0.00,VWS V14.01,2013-03-03 01:20:00,
2013-03-02 20:22:00,57.9,37.8,30.00,NW,314,3.1,3.1,47,0.00,,---,0.00,VWS V14.01,2013-03-03 01:22:00,
2013-03-02 20:24:00,57.9,37.8,30.00,NW,314,3.1,3.1,47,0.00,,---,0.00,VWS V14.01,2013-03-03 01:24:00,
2013-03-02 20:25:00,57.9,37.8,30.00,NW,314,3.1,3.1,47,0.00,,---,0.00,VWS V14.01,2013-03-03 01:25:00,
2013-03-02 20:27:00,57.9,37.8,30.00,NW,314,3.1,3.1,47,0.00,,---,0.00,VWS V14.01,2013-03-03 01:27:00,
2013-03-02 20:28:00,57.9,37.8,30.00,NW,314,3.1,3.1,47,0.00,,---,0.00,VWS V14.01,2013-03-03 01:28:00,
2013-03-02 20:29:00,57.9,37.8,30.00,NW,314,3.1,3.1,47,0.00,,---,0.00,VWS V14.01,2013-03-03 01:29:00,
2013-03-02 20:30:00,57.9,37.8,30.00,NW,314,3.1,3.1,47,0.00,,---,0.00,VWS V14.01,2013-03-03 01:30:00,
2013-03-02 20:32:00,57.9,37.8,30.00,NW,314,3.1,3.1,47,0.00,,---,0.00,VWS V14.01,2013-03-03 01:32:00,
2013-03-02 20:33:00,57.9,37.8,30.00,NW,314,3.1,3.1,47,0.00,,---,0.00,VWS V14.01,2013-03-03 01:33:00,
2013-03-02 20:34:00,57.9,37.8,30.00,NW,314,3.1,3.1,47,0.00,,---,0.00,VWS V14.01,2013-03-03 01:34:00,
2013-03-02 20:35:00,57.9,38.4,30.00,NW,314,3.1,3.1,48,0.00,,---,0.00,VWS V14.01,2013-03-03 01:35:00,
2013-03-02 20:37:00,57.9,38.4,30.00,NW,314,3.1,3.1,48,0.00,,---,0.00,VWS V14.01,2013-03-03 01:37:00,
2013-03-02 20:38:00,57.9,38.4,30.00,NW,314,3.1,3.1,48,0.00,,---,0.00,VWS V14.01,2013-03-03 01:38:00,
2013-03-02 20:39:00,57.9,38.4,30.00,NW,314,3.1,3.1,48,0.00,,---,0.00,VWS V14.01,2013-03-03 01:39:00,
2013-03-02 20:40:00,57.7,38.2,30.00,NW,314,3.1,3.1,48,0.00,,---,0.00,VWS V14.01,2013-03-03 01:40:00,
2013-03-02 20:42:00,57.7,38.2,30.00,NW,314,3.1,3.1,48,0.00,,---,0.00,VWS V14.01,2013-03-03 01:42:00,
2013-03-02 20:43:00,57.7,38.2,30.00,NW,314,3.1,3.1,48,0.00,,---,0.00,VWS V14.01,2013-03-03 01:43:00,
2013-03-02 20:44:00,57.7,38.2,30.00,NW,314,3.1,3.1,48,0.00,,---,0.00,VWS V14.01,2013-03-03 01:44:00,
2013-03-02 20:46:00,57.7,38.2,30.00,NW,314,3.1,3.1,48,0.00,,---,0.00,VWS V14.01,2013-03-03 01:46:00,
2013-03-02 20:47:00,57.7,38.2,30.00,NW,314,3.1,3.1,48,0.00,,---,0.00,VWS V14.01,2013-03-03 01:47:00,
2013-03-02 20:48:00,57.7,38.7,30.00,NW,314,3.1,3.1,49,0.00,,---,0.00,VWS V14.01,2013-03-03 01:48:00,
2013-03-02 20:49:00,57.7,38.7,30.00,NW,314,3.1,3.1,49,0.00,,---,0.00,VWS V14.01,2013-03-03 01:49:00,
2013-03-02 20:51:00,57.7,38.7,30.00,NW,314,3.1,3.1,49,0.00,,---,0.00,VWS V14.01,2013-03-03 01:51:00,
2013-03-02 20:52:00,57.7,38.7,30.00,NW,314,3.1,3.1,49,0.00,,---,0.00,VWS V14.01,2013-03-03 01:52:00,
2013-03-02 20:53:00,57.7,38.7,30.00,NW,314,3.1,3.1,49,0.00,,---,0.00,VWS V14.01,2013-03-03 01:53:00,
2013-03-02 20:54:00,57.7,38.7,30.00,NW,314,3.1,3.1,49,0.00,,---,0.00,VWS V14.01,2013-03-03 01:54:00,
2013-03-02 20:56:00,57.7,38.7,30.00,NW,314,3.1,3.1,49,0.00,,---,0.00,VWS V14.01,2013-03-03 01:56:00,
2013-03-02 20:57:00,57.7,39.2,30.00,NW,314,3.1,3.1,50,0.00,,---,0.00,VWS V14.01,2013-03-03 01:57:00,
2013-03-02 20:58:00,57.7,39.2,30.00,NW,314,3.1,3.1,50,0.00,,---,0.00,VWS V14.01,2013-03-03 01:58:00,
2013-03-02 20:59:00,57.7,39.2,30.00,NW,314,3.1,3.1,50,0.00,,---,0.00,VWS V14.01,2013-03-03 01:59:00,
2013-03-02 21:01:00,57.7,39.2,30.00,NW,314,3.1,3.1,50,0.00,,---,0.00,VWS V14.01,2013-03-03 02:01:00,
2013-03-02 21:02:00,57.7,39.2,30.00,NW,314,3.1,3.1,50,0.00,,---,0.00,VWS V14.01,2013-03-03 02:02:00,
2013-03-02 21:03:00,57.7,39.2,30.00,NW,314,3.1,3.1,50,0.00,,---,0.00,VWS V14.01,2013-03-03 02:03:00,
2013-03-02 21:04:00,57.7,39.2,30.00,NW,314,3.1,3.1,50,0.00,,---,0.00,VWS V14.01,2013-03-03 02:04:00,
2013-03-02 21:06:00,57.7,39.2,30.00,NW,314,3.1,3.1,50,0.00,,---,0.00,VWS V14.01,2013-03-03 02:06:00,
2013-03-02 21:07:00,57.7,39.2,30.00,NW,314,3.1,3.1,50,0.00,,---,0.00,VWS V14.01,2013-03-03 02:07:00,
2013-03-02 21:08:00,57.6,38.6,30.00,NW,314,3.1,3.1,49,0.00,,---,0.00,VWS V14.01,2013-03-03 02:08:00,
2013-03-02 21:09:00,57.6,38.6,30.00,NW,314,3.1,3.1,49,0.00,,---,0.00,VWS V14.01,2013-03-03 02:09:00,
2013-03-02 21:11:00,57.6,38.6,30.00,NW,314,3.1,3.1,49,0.00,,---,0.00,VWS V14.01,2013-03-03 02:11:00,
2013-03-02 21:12:00,57.6,38.6,30.00,NW,314,3.1,3.1,49,0.00,,---,0.00,VWS V14.01,2013-03-03 02:12:00,
2013-03-02 21:13:00,57.6,38.6,30.00,NW,314,3.1,3.1,49,0.00,,---,0.00,VWS V14.01,2013-03-03 02:13:00,
2013-03-02 21:14:00,57.6,38.6,30.00,NW,314,3.1,3.1,49,0.00,,---,0.00,VWS V14.01,2013-03-03 02:14:00,
2013-03-02 21:16:00,57.6,38.6,30.00,NW,314,3.1,3.1,49,0.00,,---,0.00,VWS V14.01,2013-03-03 02:16:00,
2013-03-02 21:18:00,57.6,38.6,30.00,NW,314,3.1,3.1,49,0.00,,---,0.00,VWS V14.01,2013-03-03 02:18:00,
2013-03-02 21:20:00,57.6,38.6,30.00,NW,314,3.1,3.1,49,0.00,,---,0.00,VWS V14.01,2013-03-03 02:20:00,
2013-03-02 21:21:00,57.4,38.4,30.00,NW,314,3.1,3.1,49,0.00,,---,0.00,VWS V14.01,2013-03-03 02:21:00,
2013-03-02 21:23:00,57.4,38.4,30.00,NW,314,3.1,3.1,49,0.00,,---,0.00,VWS V14.01,2013-03-03 02:23:00,
2013-03-02 21:25:00,57.4,38.4,30.00,NW,314,3.1,3.1,49,0.00,,---,0.00,VWS V14.01,2013-03-03 02:25:00,
2013-03-02 21:26:00,57.2,37.7,30.00,NW,314,3.1,3.1,48,0.00,,---,0.00,VWS V14.01,2013-03-03 02:26:00,
2013-03-02 21:28:00,57.2,37.7,30.00,NW,314,3.1,3.1,48,0.00,,---,0.00,VWS V14.01,2013-03-03 02:28:00,
2013-03-02 21:30:00,57.2,37.7,30.00,NW,314,3.1,3.1,48,0.00,,---,0.00,VWS V14.01,2013-03-03 02:30:00,
2013-03-02 21:31:00,57.2,37.7,30.00,NW,314,3.1,3.1,48,0.00,,---,0.00,VWS V14.01,2013-03-03 02:31:00,
2013-03-02 21:33:00,57.2,37.7,30.00,NW,314,3.1,3.1,48,0.00,,---,0.00,VWS V14.01,2013-03-03 02:33:00,
2013-03-02 21:35:00,57.2,37.7,30.00,NW,314,3.1,3.1,48,0.00,,---,0.00,VWS V14.01,2013-03-03 02:35:00,
2013-03-02 21:37:00,57.2,38.2,30.00,NW,314,3.1,3.1,49,0.00,,---,0.00,VWS V14.01,2013-03-03 02:37:00,
2013-03-02 21:38:00,57.2,38.2,30.00,NW,314,3.1,3.1,49,0.00,,---,0.00,VWS V14.01,2013-03-03 02:38:00,
2013-03-02 21:40:00,57.2,38.2,30.00,NW,314,3.1,3.1,49,0.00,,---,0.00,VWS V14.01,2013-03-03 02:40:00,
2013-03-02 21:42:00,57.2,38.2,30.00,NW,314,3.1,3.1,49,0.00,,---,0.00,VWS V14.01,2013-03-03 02:42:00,
2013-03-02 21:43:00,57.2,38.2,30.00,NW,314,3.1,3.1,49,0.00,,---,0.00,VWS V14.01,2013-03-03 02:43:00,
2013-03-02 21:44:00,57.2,38.2,30.00,NW,314,3.1,3.1,49,0.00,,---,0.00,VWS V14.01,2013-03-03 02:44:00,
2013-03-02 21:45:00,57.2,38.2,30.00,NW,314,3.1,3.1,49,0.00,,---,0.00,VWS V14.01,2013-03-03 02:45:00,
2013-03-02 21:47:00,57.0,38.1,30.00,NW,314,3.1,3.1,49,0.00,,---,0.00,VWS V14.01,2013-03-03 02:47:00,
2013-03-02 21:48:00,57.0,38.1,30.00,NW,314,3.1,3.1,49,0.00,,---,0.00,VWS V14.01,2013-03-03 02:48:00,
2013-03-02 21:49:00,57.0,38.1,30.00,NW,314,3.1,3.1,49,0.00,,---,0.00,VWS V14.01,2013-03-03 02:49:00,
2013-03-02 21:50:00,57.0,38.1,30.00,NW,314,3.1,3.1,49,0.00,,---,0.00,VWS V14.01,2013-03-03 02:50:00,
2013-03-02 21:52:00,57.0,38.1,30.00,NW,314,3.1,3.1,49,0.00,,---,0.00,VWS V14.01,2013-03-03 02:52:00,
2013-03-02 21:54:00,56.8,38.4,30.00,NW,314,3.1,3.1,50,0.00,,---,0.00,VWS V14.01,2013-03-03 02:54:00,
2013-03-02 21:55:00,56.8,38.4,30.00,NW,314,3.1,3.1,50,0.00,,---,0.00,VWS V14.01,2013-03-03 02:55:00,
2013-03-02 21:57:00,56.8,38.4,30.09,NW,314,3.1,3.1,50,0.00,,---,0.00,VWS V14.01,2013-03-03 02:57:00,
2013-03-02 21:59:00,56.8,38.4,30.09,NW,314,3.1,3.1,50,0.00,,---,0.00,VWS V14.01,2013-03-03 02:59:00,
2013-03-02 22:00:00,56.8,38.4,30.09,NW,314,3.1,3.1,50,0.00,,---,0.00,VWS V14.01,2013-03-03 03:00:00,
2013-03-02 22:02:00,56.8,38.4,30.09,NW,314,3.1,3.1,50,0.00,,---,0.00,VWS V14.01,2013-03-03 03:02:00,
2013-03-02 22:04:00,56.8,38.4,30.09,NW,314,3.1,3.1,50,0.00,,---,0.00,VWS V14.01,2013-03-03 03:04:00,
2013-03-02 22:05:00,56.8,38.4,30.09,NW,314,3.1,3.1,50,0.00,,---,0.00,VWS V14.01,2013-03-03 03:05:00,
2013-03-02 22:07:00,56.7,38.8,30.09,NW,314,3.1,3.1,51,0.00,,---,0.00,VWS V14.01,2013-03-03 03:07:00,
2013-03-02 22:09:00,56.7,38.8,30.09,NW,314,3.1,3.1,51,0.00,,---,0.00,VWS V14.01,2013-03-03 03:09:00,
2013-03-02 22:11:00,56.7,38.8,30.09,NW,314,3.1,3.1,51,0.00,,---,0.00,VWS V14.01,2013-03-03 03:11:00,
2013-03-02 22:13:00,56.7,38.8,30.09,NW,314,3.1,3.1,51,0.00,,---,0.00,VWS V14.01,2013-03-03 03:13:00,
2013-03-02 22:14:00,56.7,38.8,30.09,NW,314,3.1,3.1,51,0.00,,---,0.00,VWS V14.01,2013-03-03 03:14:00,
2013-03-02 22:15:00,56.7,38.8,30.09,NW,314,3.1,3.1,51,0.00,,---,0.00,VWS V14.01,2013-03-03 03:15:00,
2013-03-02 22:16:00,56.7,38.8,30.09,NW,314,3.1,3.1,51,0.00,,---,0.00,VWS V14.01,2013-03-03 03:16:00,
2013-03-02 22:18:00,56.7,38.8,30.09,NW,314,3.1,3.1,51,0.00,,---,0.00,VWS V14.01,2013-03-03 03:18:00,
2013-03-02 22:19:00,56.3,38.4,30.09,NW,314,3.1,3.1,51,0.00,,---,0.00,VWS V14.01,2013-03-03 03:19:00,
2013-03-02 22:20:00,56.3,38.4,30.09,NW,314,3.1,3.1,51,0.00,,---,0.00,VWS V14.01,2013-03-03 03:20:00,
2013-03-02 22:21:00,56.3,38.4,30.09,NW,314,3.1,3.1,51,0.00,,---,0.00,VWS V14.01,2013-03-03 03:21:00,
2013-03-02 22:23:00,56.3,38.4,30.09,NW,314,3.1,3.1,51,0.00,,---,0.00,VWS V14.01,2013-03-03 03:23:00,
2013-03-02 22:24:00,56.3,38.4,30.09,NW,314,3.1,3.1,51,0.00,,---,0.00,VWS V14.01,2013-03-03 03:24:00,
2013-03-02 22:25:00,56.3,38.4,30.09,NW,314,3.1,3.1,51,0.00,,---,0.00,VWS V14.01,2013-03-03 03:25:00,
2013-03-02 22:26:00,56.3,38.4,30.09,NW,314,3.1,3.1,51,0.00,,---,0.00,VWS V14.01,2013-03-03 03:26:00,
2013-03-02 22:28:00,56.3,38.4,30.09,NW,314,3.1,3.1,51,0.00,,---,0.00,VWS V14.01,2013-03-03 03:28:00,
2013-03-02 22:29:00,56.3,38.4,30.09,NW,314,3.1,3.1,51,0.00,,---,0.00,VWS V14.01,2013-03-03 03:29:00,
2013-03-02 22:30:00,56.3,38.4,30.09,NW,314,3.1,3.1,51,0.00,,---,0.00,VWS V14.01,2013-03-03 03:30:00,
2013-03-02 22:31:00,56.3,38.4,30.09,NW,314,3.1,3.1,51,0.00,,---,0.00,VWS V14.01,2013-03-03 03:31:00,
2013-03-02 22:33:00,56.1,39.2,30.09,NW,314,3.1,3.1,53,0.00,,---,0.00,VWS V14.01,2013-03-03 03:33:00,
2013-03-02 22:35:00,56.1,39.2,30.09,NW,314,3.1,3.1,53,0.00,,---,0.00,VWS V14.01,2013-03-03 03:35:00,
2013-03-02 22:36:00,56.1,39.2,30.09,NW,314,3.1,3.1,53,0.00,,---,0.00,VWS V14.01,2013-03-03 03:36:00,
2013-03-02 22:38:00,56.1,39.2,30.09,NW,314,3.1,3.1,53,0.00,,---,0.00,VWS V14.01,2013-03-03 03:38:00,
2013-03-02 22:40:00,56.1,39.2,30.09,NW,314,3.1,3.1,53,0.00,,---,0.00,VWS V14.01,2013-03-03 03:40:00,
2013-03-02 22:41:00,56.1,39.2,30.09,NW,314,3.1,3.1,53,0.00,,---,0.00,VWS V14.01,2013-03-03 03:41:00,
2013-03-02 22:42:00,56.1,39.2,30.09,NW,314,3.1,3.1,53,0.00,,---,0.00,VWS V14.01,2013-03-03 03:42:00,
2013-03-02 22:43:00,56.1,39.2,30.09,NW,314,3.1,3.1,53,0.00,,---,0.00,VWS V14.01,2013-03-03 03:43:00,
2013-03-02 22:45:00,55.9,39.5,30.09,NW,314,3.1,3.1,54,0.00,,---,0.00,VWS V14.01,2013-03-03 03:45:00,
2013-03-02 22:46:00,55.9,39.5,30.09,NW,314,3.1,3.1,54,0.00,,---,0.00,VWS V14.01,2013-03-03 03:46:00,
2013-03-02 22:47:00,55.9,39.5,30.09,NW,314,3.1,3.1,54,0.00,,---,0.00,VWS V14.01,2013-03-03 03:47:00,
2013-03-02 22:48:00,55.9,39.5,30.09,NW,314,3.1,3.1,54,0.00,,---,0.00,VWS V14.01,2013-03-03 03:48:00,
2013-03-02 22:50:00,55.9,39.5,30.09,NW,314,3.1,3.1,54,0.00,,---,0.00,VWS V14.01,2013-03-03 03:50:00,
2013-03-02 22:51:00,55.9,39.5,30.09,NW,314,3.1,3.1,54,0.00,,---,0.00,VWS V14.01,2013-03-03 03:51:00,
2013-03-02 22:52:00,55.9,39.5,30.09,NW,314,3.1,3.1,54,0.00,,---,0.00,VWS V14.01,2013-03-03 03:52:00,
2013-03-02 22:53:00,55.9,39.5,30.09,NW,314,3.1,3.1,54,0.00,,---,0.00,VWS V14.01,2013-03-03 03:53:00,
2013-03-02 22:55:00,55.9,39.5,30.09,NW,314,3.1,3.1,54,0.00,,---,0.00,VWS V14.01,2013-03-03 03:55:00,
2013-03-02 22:56:00,55.8,39.4,30.09,NW,314,3.1,3.1,54,0.00,,---,0.00,VWS V14.01,2013-03-03 03:56:00,
2013-03-02 22:57:00,55.8,39.4,30.09,NW,314,3.1,3.1,54,0.00,,---,0.00,VWS V14.01,2013-03-03 03:57:00,
2013-03-02 22:58:00,55.8,39.4,30.09,NW,314,3.1,3.1,54,0.00,,---,0.00,VWS V14.01,2013-03-03 03:58:00,
2013-03-02 23:00:00,55.8,39.4,30.09,NW,314,3.1,3.1,54,0.00,,---,0.00,VWS V14.01,2013-03-03 04:00:00,
2013-03-02 23:01:00,55.8,39.4,30.09,NW,314,3.1,3.1,54,0.00,,---,0.00,VWS V14.01,2013-03-03 04:01:00,
2013-03-02 23:02:00,55.8,39.4,30.09,NW,314,3.1,3.1,54,0.00,,---,0.00,VWS V14.01,2013-03-03 04:02:00,
2013-03-02 23:04:00,55.8,39.4,30.09,NW,314,3.1,3.1,54,0.00,,---,0.00,VWS V14.01,2013-03-03 04:04:00,
2013-03-02 23:05:00,55.8,39.4,30.09,NW,314,3.1,3.1,54,0.00,,---,0.00,VWS V14.01,2013-03-03 04:05:00,
2013-03-02 23:07:00,55.8,39.4,30.09,NW,314,3.1,3.1,54,0.00,,---,0.00,VWS V14.01,2013-03-03 04:07:00,
2013-03-02 23:09:00,55.8,39.4,30.09,NW,314,3.1,3.1,54,0.00,,---,0.00,VWS V14.01,2013-03-03 04:09:00,
2013-03-02 23:10:00,55.8,39.4,30.09,NW,314,3.1,3.1,54,0.00,,---,0.00,VWS V14.01,2013-03-03 04:10:00,
2013-03-02 23:12:00,55.6,39.7,30.09,NW,314,3.1,3.1,55,0.00,,---,0.00,VWS V14.01,2013-03-03 04:12:00,
2013-03-02 23:14:00,55.6,39.7,30.09,NW,314,3.1,3.1,55,0.00,,---,0.00,VWS V14.01,2013-03-03 04:14:00,
2013-03-02 23:15:00,55.6,39.7,30.09,NW,314,3.1,3.1,55,0.00,,---,0.00,VWS V14.01,2013-03-03 04:15:00,
2013-03-02 23:17:00,55.6,39.7,30.09,NW,314,3.1,3.1,55,0.00,,---,0.00,VWS V14.01,2013-03-03 04:17:00,
2013-03-02 23:19:00,55.6,39.7,30.09,NW,314,3.1,3.1,55,0.00,,---,0.00,VWS V14.01,2013-03-03 04:19:00,
2013-03-02 23:20:00,55.6,39.7,30.09,NW,314,3.1,3.1,55,0.00,,---,0.00,VWS V14.01,2013-03-03 04:20:00,
2013-03-02 23:22:00,55.6,39.7,30.09,NW,314,3.1,3.1,55,0.00,,---,0.00,VWS V14.01,2013-03-03 04:22:00,
2013-03-02 23:24:00,55.0,39.2,30.09,NW,314,3.1,3.1,55,0.00,,---,0.00,VWS V14.01,2013-03-03 04:24:00,
2013-03-02 23:26:00,55.0,39.2,30.09,NW,314,3.1,3.1,55,0.00,,---,0.00,VWS V14.01,2013-03-03 04:26:00,
2013-03-02 23:27:00,55.0,39.2,30.09,NW,314,3.1,3.1,55,0.00,,---,0.00,VWS V14.01,2013-03-03 04:27:00,
2013-03-02 23:29:00,55.0,39.2,30.09,NW,314,3.1,3.1,55,0.00,,---,0.00,VWS V14.01,2013-03-03 04:29:00,
2013-03-02 23:31:00,55.0,39.2,30.09,NW,314,3.1,3.1,55,0.00,,---,0.00,VWS V14.01,2013-03-03 04:31:00,
2013-03-02 23:32:00,55.0,39.2,30.09,NW,314,3.1,3.1,55,0.00,,---,0.00,VWS V14.01,2013-03-03 04:32:00,
2013-03-02 23:34:00,55.0,39.2,30.09,NW,314,3.1,3.1,55,0.00,,---,0.00,VWS V14.01,2013-03-03 04:34:00,
2013-03-02 23:36:00,55.0,39.2,30.09,NW,314,3.1,3.1,55,0.00,,---,0.00,VWS V14.01,2013-03-03 04:36:00,
2013-03-02 23:37:00,54.7,39.8,30.09,NW,314,3.1,3.1,57,0.00,,---,0.00,VWS V14.01,2013-03-03 04:37:00,
2013-03-02 23:38:00,54.7,39.8,30.09,NW,314,3.1,3.1,57,0.00,,---,0.00,VWS V14.01,2013-03-03 04:38:00,
2013-03-02 23:39:00,54.7,39.8,30.09,NW,314,3.1,3.1,57,0.00,,---,0.00,VWS V14.01,2013-03-03 04:39:00,
2013-03-02 23:41:00,54.7,39.8,30.09,NW,314,3.1,3.1,57,0.00,,---,0.00,VWS V14.01,2013-03-03 04:41:00,
2013-03-02 23:42:00,54.7,39.8,30.09,NW,314,3.1,3.1,57,0.00,,---,0.00,VWS V14.01,2013-03-03 04:42:00,
2013-03-02 23:43:00,54.7,39.8,30.09,NW,314,3.1,3.1,57,0.00,,---,0.00,VWS V14.01,2013-03-03 04:43:00,
2013-03-02 23:44:00,54.7,39.8,30.09,NW,314,3.1,3.1,57,0.00,,---,0.00,VWS V14.01,2013-03-03 04:44:00,
2013-03-02 23:46:00,54.7,39.8,30.09,NW,314,3.1,3.1,57,0.00,,---,0.00,VWS V14.01,2013-03-03 04:46:00,
2013-03-02 23:47:00,54.7,39.8,30.09,NW,314,3.1,3.1,57,0.00,,---,0.00,VWS V14.01,2013-03-03 04:47:00,
2013-03-02 23:48:00,54.7,39.8,30.09,NW,314,3.1,3.1,57,0.00,,---,0.00,VWS V14.01,2013-03-03 04:48:00,
2013-03-02 23:50:00,54.5,40.5,30.09,NW,314,3.1,3.1,59,0.00,,---,0.00,VWS V14.01,2013-03-03 04:50:00,
2013-03-02 23:51:00,54.5,40.5,30.09,NW,314,3.1,3.1,59,0.00,,---,0.00,VWS V14.01,2013-03-03 04:51:00,
2013-03-02 23:52:00,54.5,40.5,30.09,NW,314,3.1,3.1,59,0.00,,---,0.00,VWS V14.01,2013-03-03 04:52:00,
2013-03-02 23:53:00,54.5,40.5,30.09,NW,314,3.1,3.1,59,0.00,,---,0.00,VWS V14.01,2013-03-03 04:53:00,
2013-03-02 23:55:00,54.5,40.5,30.09,NW,314,3.1,3.1,59,0.00,,---,0.00,VWS V14.01,2013-03-03 04:55:00,
2013-03-02 23:56:00,54.5,40.5,30.09,NW,314,3.1,3.1,59,0.00,,---,0.00,VWS V14.01,2013-03-03 04:56:00,
2013-03-02 23:57:00,54.5,40.5,30.09,NW,314,3.1,3.1,59,0.00,,---,0.00,VWS V14.01,2013-03-03 04:57:00,
2013-03-02 23:58:00,54.5,40.5,30.09,NW,314,3.1,3.1,59,0.00,,---,0.00,VWS V14.01,2013-03-03 04:58:00,